Warning: Javascript must be enabled to use all the features on this page!


Page Loading - Please Wait...

Click to hideNews Bulletins

Streamflow Measurements for the Nation


USGS 11304810 SAN JOAQUIN R BL GARWOOD BRIDGE A STOCKTON CA


San Joaquin County, California
Hydrologic Unit Code 18040003
Latitude  37°56'08", Longitude 121°19'45" NAD27
Gage datum 0 feet above NAVD88
Output formats
HTML table with channel data
HTML table without channel data
Tab-separated data with channel data
Tab-separated data without channel data
Graph of data
Reselect output format
Meas.
Number
  Date       Time Time
Datum
Measurement
Used?
  Who Measuring
Agency
Stream
flow
(ft3/s)
Gage
Height
(ft)
GH
Change
(ft)
Meas.
Duration
(hr)
Meas.
Rated
  Control Flow
Adjust.
Code
 
32402021-10-05 09:12:40PSTYesEDUBER/HRABAUSGS25403.98 Poor NONE
32392021-10-05 09:10:36PSTYesEDUBER/HRABAUSGS24004.00 Poor NONE
32382021-10-05 09:08:37PSTYesEDUBER/HRABAUSGS24804.01 Poor NONE
32372021-10-05 09:06:36PSTYesEDUBER/HRABAUSGS25404.02 Poor NONE
32362021-10-05 09:04:32PSTYesEDUBER/HRABAUSGS26004.04 Poor NONE
32352021-10-05 09:02:04PSTYesEDUBER/HRABAUSGS24104.05 Poor NONE
32342021-08-11 09:26:06PSTYesNSOEDER/HRABUSGS26305.32 Poor NONE
32332021-08-11 09:20:45PSTYesNSOEDER/HRABUSGS25405.38 Poor NONE
32322021-08-11 09:14:13PSTYesNSOEDER/HRABUSGS23005.44 Poor NONE
32312021-08-11 09:07:14PSTYesNSOEDER/HRABUSGS22105.52 Poor NONE
32302021-08-11 09:02:19PSTYesNSOEDER/HRABUSGS20305.57 Poor NONE
32292021-08-11 08:58:10PSTYesNSOEDER/HRABUSGS18605.62 Poor NONE
32282021-06-24 13:40:34PSTYesNSOEDER/HRABUSGS27903.04 Poor NONE
32272021-06-24 13:36:03PSTYesNSOEDER/HRABUSGS29203.03 Poor NONE
32262021-06-24 13:32:02PSTYesNSOEDER/HRABUSGS28803.04 Poor NONE
32252021-06-24 13:27:59PSTYesNSOEDER/HRABUSGS30503.03 Poor NONE
32242021-06-24 13:23:31PSTYesNSOEDER/HRABUSGS30403.03 Poor NONE
32232021-06-24 13:19:16PSTYesNSOEDER/HRABUSGS31603.05 Poor NONE
32222021-04-13 10:04:01PSTYesNSOEDER, HRAUSGS27504.17 Poor NONE
32212021-04-13 09:58:55PSTYesNSOEDER, HRAUSGS27804.20 Poor NONE
32202021-04-13 09:55:06PSTYesNSOEDER, HRAUSGS27504.21 Poor NONE
32192021-04-13 09:50:30PSTYesNSOEDER, HRAUSGS28604.23 Poor NONE
32182021-04-13 09:46PSTYesNSOEDER, HRAUSGS28404.25 Poor NONE
32172021-04-13 09:42:09PSTYesNSOEDER, HRAUSGS29004.27 Poor NONE
32162021-02-01 11:59:40PSTYesJEH/EBDUSGS38304.29 Poor NONE
32152021-02-01 11:56:17PSTYesJEH/EBDUSGS40504.32 Poor NONE
32142021-02-01 11:46:33PSTYesJEH/EBDUSGS37604.41 Poor NONE
32132021-02-01 11:43:08PSTYesJEH/EBDUSGS36904.44 Poor NONE
32122021-02-01 11:39:34PSTYesJEH/EBDUSGS37804.47 Poor NONE
32112021-02-01 11:36:06PSTYesJEH/EBDUSGS37504.51 Poor NONE
32102020-11-04 12:38:03PSTYesHR/ NSUSGS23203.97 Poor NONE
32092020-11-04 12:32:32PSTYesHR/ NSUSGS23803.99 Poor NONE
32082020-11-04 12:27:23PSTYesHR/ NSUSGS24604.01 Poor NONE
32072020-11-04 12:22:06PSTYesHR/ NSUSGS25004.02 Poor NONE
32062020-11-04 12:16:59PSTYesHR/ NSUSGS25004.05 Poor NONE
32052020-11-04 12:12:25PSTYesHR/ NSUSGS24904.07 Poor NONE
32042020-09-15 11:44:29PSTYesHR/NWSUSGS30102.62 Poor NONE
32032020-09-15 11:39:51PSTYesHR/NWSUSGS30302.62 Poor NONE
32022020-09-15 11:35:20PSTYesHR/NWSUSGS30402.61 Poor NONE
32012020-09-15 11:30:46PSTYesHR/NWSUSGS32202.63 Poor NONE
32002020-09-15 11:26:29PSTYesHR/NWSUSGS29302.68 Poor NONE
31992020-09-15 11:21:55PSTYesHR/NWSUSGS31002.69 Poor NONE
31982020-05-21 14:44:03PSTYesHR, NSUSGS-20503.82 Poor NONE
31972020-05-21 14:38:09PSTYesHR, NSUSGS-20203.76 Poor NONE
31962020-05-21 14:32:43PSTYesHR, NSUSGS-19103.68 Poor NONE
31952020-05-21 14:27:21PSTYesHR, NSUSGS-17703.60 Poor NONE
31942020-05-21 14:22:42PSTYesHR, NSUSGS-18503.53 Poor NONE
31932020-05-21 14:18:33PSTYesHR, NSUSGS-16003.46 Poor NONE
31922020-02-18 16:36:05PSTYesHR, MIUSGS34504.71 Poor NONE
31912020-02-18 16:17:59PSTYesHR, MIUSGS33404.86 Poor NONE
31902020-02-18 16:15:41PSTYesHR, MIUSGS33204.88 Poor NONE
31892020-02-18 16:04:58PSTYesHR, MIUSGS31404.99 Poor NONE
31882020-02-18 16:02:39PSTYesHR, MIUSGS30705.01 Poor NONE
31872020-02-18 15:54:40PSTYesHR, MIUSGS29105.10 Poor NONE
31862020-02-18 15:52:20PSTYesHR, MIUSGS30005.13 Poor NONE
31852020-02-18 15:45:28PSTYesHR, MIUSGS28605.20 Poor NONE
31842020-02-18 15:43:08PSTYesHR, MIUSGS26205.23 Poor NONE
31832020-02-18 15:34:58PSTYesHR, MIUSGS25205.33 Poor NONE
31822020-02-18 15:32:34PSTYesHR, MIUSGS23505.36 Poor NONE
31812020-02-18 15:26:20PSTYesHR, MIUSGS20905.44 Poor NONE
31802020-02-18 15:23:54PSTYesHR, MIUSGS19105.47 Poor NONE
31792020-02-18 15:16:04PSTYesHR, MIUSGS16905.58 Poor NONE
31782020-02-18 15:13:29PSTYesHR, MIUSGS15005.61 Poor NONE
31772020-02-18 15:06:19PSTYesHR, MIUSGS10405.70 Poor NONE
31762020-02-18 15:03:36PSTYesHR, MIUSGS8535.74 Poor NONE
31752020-02-18 14:56:33PSTYesHR, MIUSGS4645.82 Poor NONE
31742020-02-18 14:54:01PSTYesHR, MIUSGS3085.85 Poor NONE
31732020-02-18 14:49:28PSTYesHR, MIUSGS96.55.89 Poor NONE
31722020-02-18 14:46:58PSTYesHR, MIUSGS-1045.92 Poor NONE
31712020-02-18 14:38:59PSTYesHR, MIUSGS-5395.99 Poor NONE
31702020-02-18 14:36:31PSTYesHR, MIUSGS-6796.01 Poor NONE
31692020-02-18 14:22:40PSTYesHR, MIUSGS-13006.09 Poor NONE
31682020-02-18 14:20:18PSTYesHR, MIUSGS-14106.10 Poor NONE
31672020-02-18 14:05:12PSTYesHR, MIUSGS-18906.13 Poor NONE
31662020-02-18 14:03:01PSTYesHR, MIUSGS-18506.14 Poor NONE
31652020-02-18 13:34:10PSTYesHR, MIUSGS-25606.11 Poor NONE
31642020-02-18 13:31:56PSTYesHR, MIUSGS-25906.10 Poor NONE
31632020-02-18 13:04:17PSTYesHR, MIUSGS-28605.99 Poor NONE
31622020-02-18 13:02:04PSTYesHR, MIUSGS-29305.98 Poor NONE
31612020-02-18 12:31:05PSTYesHR, MIUSGS-28905.80 Poor NONE
31602020-02-18 12:28:50PSTYesHR, MIUSGS-28305.78 Poor NONE
31592020-02-18 11:53:55PSTYesHR, MIUSGS-29505.55 Poor NONE
31582020-02-18 11:51:41PSTYesHR, MIUSGS-29005.53 Poor NONE
31572020-02-18 11:11:57PSTYesHR, MIUSGS-28005.26 Poor NONE
31562020-02-18 11:09:44PSTYesHR, MIUSGS-27405.25 Poor NONE
31552020-02-18 10:39:36PSTYesHR, MIUSGS-27805.06 Poor NONE
31542020-02-18 10:37:24PSTYesHR, MIUSGS-28705.04 Poor NONE
31532020-02-18 10:20:40PSTYesHR, MIUSGS-28304.91 Poor NONE
31522020-02-18 10:18:21PSTYesHR, MIUSGS-27104.89 Poor NONE
31512020-02-18 10:03:06PSTYesHR, MIUSGS-25304.74 Poor NONE
31502020-02-18 10:00:51PSTYesHR, MIUSGS-24904.72 Poor NONE
31492020-02-18 09:43:47PSTYesHR, MIUSGS-22204.54 Poor NONE
31482020-02-18 09:41:37PSTYesHR, MIUSGS-22004.51 Poor NONE
31472020-02-18 09:22:15PSTYesHR, MIUSGS-15204.25 Poor NONE
31462020-02-18 09:19:59PSTYesHR, MIUSGS-14104.22 Poor NONE
31452020-01-23 11:35:51PSTYesHR/ MIUSGS2833.72 Poor NONE
31442020-01-23 11:31:46PSTYesHR/ MIUSGS4823.67 Poor NONE
31432020-01-23 11:27:26PSTYesHR/ MIUSGS6553.62 Poor NONE
31422020-01-23 11:23:22PSTYesHR/ MIUSGS8763.58 Poor NONE
31412020-01-23 11:19:12PSTYesHR/ MIUSGS10603.54 Poor NONE
31402020-01-23 11:15:10PSTYesHR/ MIUSGS11703.50 Poor NONE
31392019-12-05 12:27:57PSTYesHR, JHUSGS-7875.58 Poor NONE
31382019-12-05 12:23:57PSTYesHR, JHUSGS-7365.55 Poor NONE
31372019-12-05 12:19:23PSTYesHR, JHUSGS-6855.52 Poor NONE
31362019-12-05 12:14:25PSTYesHR, JHUSGS-7575.49 Poor NONE
31352019-12-05 12:10:16PSTYesHR, JHUSGS-7285.46 Poor NONE
31342019-12-05 12:05:48PSTYesHR, JHUSGS-7475.43 Poor NONE
31332019-10-03 11:40:04PSTYesHR/BGUSGS38104.13 Poor NONE
31322019-10-03 11:36:43PSTYesHR/BGUSGS39304.16 Poor NONE
31312019-10-03 11:33:54PSTYesHR/BGUSGS37404.18 Poor NONE
31302019-10-03 11:31:21PSTYesHR/BGUSGS38304.20 Poor NONE
31292019-10-03 11:28:27PSTYesHR/BGUSGS39004.22 Poor NONE
31282019-10-03 11:25:12PSTYesHR/BGUSGS38604.25 Poor NONE
31272019-08-13 11:19:48PSTYesMP, HRUSGS36702.82 Poor NONE
31262019-08-13 11:17PSTYesMP, HRUSGS37402.85 Poor NONE
31252019-08-13 11:13:54PSTYesMP, HRUSGS38702.87 Poor NONE
31242019-08-13 11:10:35PSTYesMP, HRUSGS37502.90 Poor NONE
31232019-08-13 11:07:11PSTYesMP, HRUSGS37402.92 Poor NONE
31222019-08-13 11:03:31PSTYesMP, HRUSGS38802.95 Poor NONE
31212019-06-18 10:16:52PSTYesHR, BG, MPUSGS69005.57 Poor NONE
31202019-06-18 10:13:53PSTYesHR, BG, MPUSGS67905.59 Poor NONE
31192019-06-18 10:10:47PSTYesHR, BG, MPUSGS69005.62 Poor NONE
31182019-06-18 10:07:36PSTYesHR, BG, MPUSGS70105.64 Poor NONE
31172019-06-18 10:04:36PSTYesHR, BG, MPUSGS69405.67 Poor NONE
31162019-06-18 10:00:05PSTYesHR, BG, MPUSGS67105.70 Poor NONE
31152019-04-23 09:47:58PSTYesMP/TD/CHUSGS59006.00 Poor NONE
31142019-04-23 09:44:48PSTYesMP/TD/CHUSGS59006.03 Poor NONE
31132019-04-23 09:41:38PSTYesMP/TD/CHUSGS59006.06 Poor NONE
31122019-04-23 09:38:35PSTYesMP/TD/CHUSGS57206.10 Poor NONE
31112019-04-23 09:35:32PSTYesMP/TD/CHUSGS59506.13 Poor NONE
31102019-04-23 09:32PSTYesMP/TD/CHUSGS55806.16 Poor NONE
31092019-03-07 13:02:46PSTYesMP,NS,ZHUSGS80205.62 GoodUnspecifedNONE
31082019-03-07 12:55:12PSTYesMP,NS,ZHUSGS79405.65 GoodUnspecifedNONE
31072019-03-07 12:48:52PSTYesMP,NS,ZHUSGS79105.65 GoodUnspecifedNONE
31062019-03-07 12:43:36PSTYesMP,NS,ZHUSGS82605.69 GoodUnspecifedNONE
31052019-03-07 12:38:48PSTYesMP,NS,ZHUSGS80705.71 GoodUnspecifedNONE
31042019-03-07 12:34:06PSTYesMP,NS,ZHUSGS81605.72 GoodUnspecifedNONE
31032019-03-07 10:36:47PSTYesMP,NS,ZHUSGS83006.21 GoodUnspecifedNONE
31022019-03-07 10:30:26PSTYesMP,NS,ZHUSGS80806.24 GoodUnspecifedNONE
31012019-03-07 10:20:10PSTYesMP,NS,ZHUSGS80806.30 GoodUnspecifedNONE
31002019-03-07 10:14:25PSTYesMP,NS,ZHUSGS81806.32 GoodUnspecifedNONE
30992019-03-07 10:08:45PSTYesMP,NS,ZHUSGS81006.35 GoodUnspecifedNONE
30982019-03-07 10:02:39PSTYesMP,NS,ZHUSGS80906.38 GoodUnspecifedNONE
30972019-02-21 15:08:35PSTYesMP, NSUSGS47105.12 Good NONE
30962019-02-21 15:05:21PSTYesMP, NSUSGS49805.05 Good NONE
30952019-02-21 15:01:58PSTYesMP, NSUSGS50005.01 Good NONE
30942019-02-21 14:59:09PSTYesMP, NSUSGS51804.99 Good NONE
30932019-02-21 14:56:14PSTYesMP, NSUSGS55704.94 Good NONE
30922019-02-21 14:53PSTYesMP, NSUSGS55804.88 Good NONE
30912019-02-21 13:59:24PSTYesMP, NSUSGS66504.68 Good NONE
30902019-02-21 13:55:40PSTYesMP, NSUSGS66704.68 Good NONE
30892019-02-21 13:51:51PSTYesMP, NSUSGS66304.68 Good NONE
30882019-02-21 13:48:26PSTYesMP, NSUSGS65804.69 Good NONE
30872019-02-21 13:45:18PSTYesMP, NSUSGS66504.70 Good NONE
30862019-02-21 13:42:03PSTYesMP, NSUSGS67604.70 Good NONE
30852019-02-21 13:38:56PSTYesMP, NSUSGS68104.71 Good NONE
30842019-02-21 13:36:16PSTYesMP, NSUSGS63504.73 Good NONE
30832019-02-21 13:33:59PSTYesMP, NSUSGS66004.72 Good NONE
30822019-02-21 13:31:24PSTYesMP, NSUSGS68504.73 Good NONE
30812019-02-21 13:28:28PSTYesMP, NSUSGS68104.75 Good NONE
30802019-02-21 13:24:31PSTYesMP, NSUSGS69804.76 Good NONE
30792019-02-05 14:41:14PSTYesMP,JHUSGS-2246.45 Fair NONE
30782019-02-05 14:38:55PSTYesMP,JHUSGS-3096.41 Fair NONE
30772019-02-05 14:35:52PSTYesMP,JHUSGS-1405.95 Fair NONE
30762019-02-05 14:33:06PSTYesMP,JHUSGS-47.85.91 Fair NONE
30752019-02-05 14:30:24PSTYesMP,JHUSGS39.05.88 Fair NONE
30742019-02-05 14:26:22PSTYesMP,JHUSGS2355.81 Fair NONE
21332018-10-31 10:23:45PSTYesMP, MIUSGS1574.52 Good NONE
21322018-10-31 10:19:07PSTYesMP, MIUSGS2034.48 Good NONE
21312018-10-31 10:15:07PSTYesMP, MIUSGS2004.46 Good NONE
21302018-10-31 10:10:51PSTYesMP, MIUSGS2744.43 Good NONE
21292018-10-31 10:05:34PSTYesMP, MIUSGS3254.40 Good NONE
21282018-10-31 10:01:25PSTYesMP, MIUSGS2894.38 Good NONE
21272018-10-16 11:18PSTYesMP/BGUSGS-11704.87 Good NONE
21262018-10-16 11:14:42PSTYesMP/BGUSGS-10304.85 Good NONE
21252018-10-16 11:11:24PSTYesMP/BGUSGS-10904.84 Good NONE
21242018-10-16 11:07:44PSTYesMP/BGUSGS-10104.82 Good NONE
21232018-10-16 11:04PSTYesMP/BGUSGS-10204.80 Good NONE
21222018-10-16 11:00:30PSTYesMP/BGUSGS-9814.78 Good NONE
21212018-08-21 10:47:45PSTYesCC/MP/TDUSGS16403.03 Good NONE
21202018-08-21 10:45:01PSTYesCC/MP/TDUSGS17603.01 Good NONE
21192018-08-21 10:40:10PSTYesCC/MP/TDUSGS19902.98 Good NONE
21182018-08-21 10:37:40PSTYesCC/MP/TDUSGS20602.97 Good NONE
21172018-08-21 10:32:36PSTYesCC/MP/TDUSGS21602.96 Good NONE
21162018-08-21 10:29PSTYesCC/MP/TDUSGS21902.95 Good NONE
21152018-07-12 09:28:47PSTYesCC/CH/MPUSGS33004.59 Good NONE
21142018-07-12 09:25:35PSTYesCC/CH/MPUSGS34104.62 Good NONE
21132018-07-12 09:22:04PSTYesCC/CH/MPUSGS33404.65 Good NONE
21122018-07-12 09:15:37PSTYesCC/CH/MPUSGS31804.71 Good NONE
21112018-07-12 09:12:12PSTYesCC/CH/MPUSGS31504.74 Good NONE
21102018-07-12 09:05:31PSTYesCC/CH/MPUSGS32304.80 Good NONE
21092018-05-14 10:09:26PSTYesNS/CCUSGS44903.99 Unspecified NONE
21082018-05-14 10:02:23PSTYesNS/CCUSGS44104.04 Unspecified NONE
21072018-05-14 09:57:45PSTYesNS/CCUSGS42304.08 Unspecified NONE
21062018-05-14 09:54:07PSTYesNS/CCUSGS43004.11 Unspecified NONE
21052018-05-14 09:50:23PSTYesNS/CCUSGS43604.14 Unspecified NONE
21042018-05-14 09:46PSTYesNS/CCUSGS41504.18 Good NONE
21032018-03-27 09:23:28PSTYesCH,BGUSGS43603.67 Good NONE
21022018-03-27 09:19:48PSTYesCH,BGUSGS41603.67 Good NONE
21012018-03-27 09:16:05PSTYesCH,BGUSGS44003.69 Good NONE
21002018-03-27 09:12:33PSTYesCH,BGUSGS44403.67 Good NONE
20992018-03-27 09:09:05PSTYesCH,BGUSGS43703.66 Good NONE
20982018-03-27 09:06:11PSTYesCH,BGUSGS47103.66 Good NONE
20972018-02-27 14:49PSTYesBS, CCUSGS-19406.13 Unspecified NONE
20962018-02-27 14:45PSTYesBS, CCUSGS-19406.12 Unspecified NONE
20952018-02-27 14:41:30PSTYesBS, CCUSGS-19306.08 Unspecified NONE
20942018-02-27 14:38PSTYesBS, CCUSGS-20106.06 Unspecified NONE
20932018-02-27 14:32:30PSTYesBS, CCUSGS-20206.03 Unspecified NONE
20922018-02-27 14:28:30PSTYesBS, CCUSGS-20206.01 Unspecified NONE
20912018-01-17 12:25:30PSTYesTV/BSUSGS13203.59 Unspecified NONE
20902018-01-17 12:21PSTYesTV/BSUSGS14303.56 Unspecified NONE
20892018-01-17 12:16PSTYesTV/BSUSGS16303.54 Unspecified NONE
20882018-01-17 12:10:30PSTYesTV/BSUSGS17503.52 Unspecified NONE
20872018-01-17 12:05:30PSTYesTV/BSUSGS18403.51 Unspecified NONE
20862018-01-17 12:00:30PSTYesTV/BSUSGS19103.50 Unspecified NONE
20842017-11-28 13:14:30PSTYesBS/NSUSGS-27005.24 Unspecified NONE
20832017-11-28 13:07PSTYesBS/NSUSGS-26305.21 Unspecified NONE
20822017-11-28 13:01PSTYesBS/NSUSGS-27605.19 Unspecified NONE
20812017-11-28 12:55PSTYesBS/NSUSGS-25905.14 Unspecified NONE
20802017-11-28 12:46:30PSTYesBS/NSUSGS-26705.07 Unspecified NONE
20792017-09-19 11:52:30PSTYesBS/BF/NUSGS34503.13 Unspecified NONE
20782017-09-19 11:48:30PSTYesBS/BF/NUSGS35803.15 Unspecified NONE
20772017-09-19 11:45:30PSTYesBS/BF/NUSGS35203.16 Unspecified NONE
20762017-09-19 11:42PSTYesBS/BF/NUSGS34803.18 Unspecified NONE
20752017-09-19 11:37:30PSTYesBS/BF/NUSGS35803.22 Unspecified NONE
20742017-09-19 11:33:30PSTYesBS/BF/NUSGS35403.25 Unspecified NONE
30732017-06-22 12:45:44PSTYesBS/BFUSGS71404.18 Good NONE
30722017-06-22 11:13:38PSTYesBS/BFUSGS81004.31 Good NONE
20712017-06-22 10:33:56PSTYesBS/BFUSGS83304.56 Good NONE
20702017-06-22 10:29:43PSTYesBS/BFUSGS82204.59 Good NONE
20692017-06-22 10:24:17PSTYesBS/BFUSGS79304.63 Good NONE
20682017-06-22 10:19:30PSTYesBS/BFUSGS83204.66 Good NONE
20672017-06-22 10:15:10PSTYesBS/BFUSGS80004.69 Good NONE
20662017-06-22 10:10:30PSTYesBS/BFUSGS83304.73 Good NONE
20652017-05-09 10:42:30PSTYesBF/BSUSGS104005.58 Unspecified NONE
20642017-05-09 10:37:30PSTYesBF/BSUSGS108005.60 Unspecified NONE
20632017-05-09 10:32PSTYesBF/BSUSGS104005.63 Unspecified NONE
20622017-05-09 10:26:30PSTYesBF/BSUSGS108005.66 Unspecified NONE
20612017-05-09 09:32PSTYesBF/BSUSGS103006.00 Unspecified NONE
20602017-05-09 09:26:30PSTYesBF/BSUSGS106006.02 Unspecified NONE
20592017-03-07 11:10:30PSTYesBS/RJUSGS114007.86 Unspecified NONE
20582017-03-07 11:05:30PSTYesBS/RJUSGS116007.82 Unspecified NONE
20572017-03-07 11:00:30PSTYesBS/RJUSGS116007.80 Unspecified NONE
20562017-03-07 10:55PSTYesBS/RJUSGS117007.76 Unspecified NONE
20552017-03-07 10:49:30PSTYesBS/RJUSGS118007.73 Unspecified NONE
20542017-03-07 10:44PSTYesBS/RJUSGS116007.70 Unspecified NONE
20532017-02-28 14:27:30PSTNo
20522017-02-28 14:24PSTNo
20512017-02-28 14:20:30PSTNo
20502017-02-28 14:17PSTNo
20492017-02-28 14:13PSTNo
20482017-02-28 14:08:30PSTNo
20472017-02-28 14:04:30PSTNo
20462017-02-28 14:00PSTNo
20452017-02-28 13:56:30PSTNo
20442017-02-28 13:52PSTNo
20432017-02-28 13:48:30PSTNo
20422017-02-28 13:44:30PSTNo
20412017-02-28 13:28:30PSTNo
20402017-02-28 13:24:30PSTNo
20392017-02-28 13:21PSTNo
20382017-02-28 13:17PSTNo
20372017-02-28 13:13PSTNo
20362017-02-28 13:09PSTNo
20352017-02-28 13:03:30PSTNo
20342017-02-28 13:00PSTNo
20332017-02-28 12:55PSTNo
20322017-02-28 12:51PSTNo
20312017-02-28 12:47PSTNo
20302017-02-28 12:42PSTNo
20292017-02-28 12:08PSTNo
20282017-02-28 12:03:30PSTNo
20272017-02-28 11:59:30PSTNo
20262017-02-28 11:55:30PSTNo
20252017-02-28 11:51PSTNo
20242017-02-28 11:46PSTNo
20232017-01-19 13:27PSTYesBS/WFUSGS90307.39 Unspecified NONE
20222017-01-19 13:23PSTYesBS/WFUSGS88007.42 Unspecified NONE
20212017-01-19 13:19PSTYesBS/WFUSGS89107.42 Unspecified NONE
20202017-01-19 13:15:30PSTYesBS/WFUSGS88307.48 Unspecified NONE
20192017-01-19 12:59PSTYesBS/WFUSGS87807.59 Unspecified NONE
20182017-01-19 12:54:30PSTYesBS/WFUSGS85007.62 Unspecified NONE
20172017-01-19 12:50PSTYesBS/WFUSGS86107.65 Unspecified NONE
20162017-01-19 12:45:30PSTYesBS/WFUSGS87007.70 Unspecified NONE
20152017-01-19 12:41PSTYesBS/WFUSGS83907.73 Unspecified NONE
20142017-01-19 12:36:30PSTYesBS/WFUSGS84207.77 Unspecified NONE
20132017-01-19 12:32PSTYesBS/WFUSGS81907.80 Unspecified NONE
20122017-01-19 12:27:30PSTYesBS/WFUSGS88907.84 Unspecified NONE
20112017-01-19 12:22:30PSTYesBS/WFUSGS82907.90 Unspecified NONE
20102017-01-19 12:17:30PSTYesBS/WFUSGS83407.90 Unspecified NONE
20092017-01-19 12:13PSTYesBS/WFUSGS80707.90 Unspecified NONE
20082017-01-19 12:07:30PSTYesBS/WFUSGS78507.93 Unspecified NONE
20072017-01-19 12:03PSTYesBS/WFUSGS75607.96 Unspecified NONE
20062017-01-19 11:57:30PSTYesBS/WFUSGS78307.96 Unspecified NONE
20052017-01-19 11:50PSTYesBS/WFUSGS74908.02 Unspecified NONE
20042017-01-19 11:44PSTYesBS/WFUSGS77407.85 Unspecified NONE
20032017-01-19 11:37:30PSTYesBS/WFUSGS72908.00 Unspecified NONE
20022017-01-19 11:30:30PSTYesBS/WFUSGS68308.02 Unspecified NONE
20012017-01-19 11:17PSTYesBS/WFUSGS67208.02 Unspecified NONE
20002017-01-19 11:10:30PSTYesBS/WFUSGS66407.97 Unspecified NONE
19992017-01-19 11:04PSTYesBS/WFUSGS65707.98 Unspecified NONE
19982017-01-19 10:57PSTYesBS/WFUSGS64107.95 Unspecified NONE
19972017-01-19 10:49:30PSTYesBS/WFUSGS64407.92 Unspecified NONE
19962017-01-19 10:43PSTYesBS/WFUSGS64907.87 Unspecified NONE
19952017-01-19 10:36PSTYesBS/WFUSGS64407.82 Unspecified NONE
19942017-01-19 10:30PSTYesBS/WFUSGS66507.80 Unspecified NONE
19932017-01-19 10:23PSTYesBS/WFUSGS65207.77 Poor NONE
19922017-01-12 11:53:30PSTYesBS/WFUSGS69506.49 Fair NONE
19912017-01-12 11:47PSTYesBS/WFUSGS70706.49 Unspecified NONE
19902017-01-12 11:40:30PSTYesBS/WFUSGS71506.50 Unspecified NONE
19892017-01-12 11:34:30PSTYesBS/WFUSGS68806.50 Unspecified NONE
19882017-01-12 11:29PSTYesBS/WFUSGS71606.52 Fair NONE
19872017-01-12 11:22:30PSTYesBS/WFUSGS73706.53 Fair NONE
19862016-11-15 12:54PSTYesBS/RJUSGS-2643.52 Fair NONE
19852016-11-15 12:49:30PSTYesBS/RJUSGS1143.44 Fair NONE
19842016-11-15 12:43:30PSTYesBS/RJUSGS5263.36 Fair NONE
19832016-11-15 12:37PSTYesBS/RJUSGS8613.24 Fair NONE
19822016-11-15 12:32PSTYesBS/RJUSGS10403.21 Fair NONE
18792016-08-24 14:24:30PSTYesBJSUSGS16303.56 Unspecified NONE
18782016-08-24 14:19PSTYesBJSUSGS16303.56 Unspecified NONE
18772016-08-24 14:13:30PSTYesBJSUSGS15103.59 Unspecified NONE
18762016-08-24 14:08PSTYesBJSUSGS15803.58 Unspecified NONE
18752016-08-24 14:03PSTYesBJSUSGS18103.57 Unspecified NONE
18742016-08-24 13:57:30PSTYesBJSUSGS16703.77 Unspecified NONE
18852016-06-15 15:30:15PSTYesBS/BLUSGS-19305.10 Unspecified NONE
18842016-06-15 15:25:42PSTYesBS/BLUSGS-19905.09 Unspecified NONE
18832016-06-15 15:20:29PSTYesBS/BLUSGS-20005.09 Unspecified NONE
18822016-06-15 15:15:46PSTYesBS/BLUSGS-19505.09 Unspecified NONE
18812016-06-15 15:11:08PSTYesBS/BLUSGS-20005.07 Unspecified NONE
18802016-06-15 15:05:30PSTYesBS/BLUSGS-19705.06 Unspecified NONE
18672016-04-06 12:15PSTYesBS/BFUSGS19902.28 Fair NONE
18662016-04-06 12:09:30PSTYesBS/BFUSGS21802.27 Fair NONE
18652016-04-06 12:04PSTYesBS/BFUSGS22802.25 Fair NONE
18642016-04-06 11:58PSTYesBS/BFUSGS24602.25 Fair NONE
18632016-04-06 11:51:30PSTYesBS/BFUSGS25202.26 Fair NONE
18622016-04-06 11:46:30PSTYesBS/BFUSGS25602.26 Fair NONE
18612016-02-29 16:38PSTYesND/BFUSGS23302.46 Unspecified NONE
18602016-02-29 16:29PSTYesND/BFUSGS24402.48 Unspecified NONE
18592016-02-29 16:22PSTYesND/BFUSGS24702.54 Unspecified NONE
18582016-02-29 16:14PSTYesND/BFUSGS24502.57 Unspecified NONE
18572016-02-29 16:08PSTYesND/BFUSGS25202.61 Unspecified NONE
18562016-02-29 16:01PSTYesND/BFUSGS26602.67 Unspecified NONE
18552015-11-09 12:09PSTYesBS/NDUSGS-1880 Unspecified NONE
18542015-11-09 12:01PSTYesBS/NDUSGS-1800 Unspecified NONE
18532015-11-09 11:49PSTYesBS/NDUSGS-1530 Unspecified NONE
18522015-11-09 11:42PSTYesBS/NDUSGS-1190 Unspecified NONE
18512015-11-09 11:35PSTYesBS/NDUSGS-743 Unspecified NONE
18502015-11-09 11:29PSTYesBS/NDUSGS-364 Unspecified NONE
18492015-09-22 12:52PSTYesBS/NDUSGS-2540 Unspecified NONE
18482015-09-22 12:46PSTYesBS/NDUSGS-2440 Unspecified NONE
18472015-09-22 12:39PSTYesBS/NDUSGS-2320 Unspecified NONE
18462015-09-22 12:33PSTYesBS/NDUSGS-2240 Unspecified NONE
18452015-08-14 13:26PSTYesBS, ETUSGS2010 Unspecified NONE
18442015-08-14 13:23PSTYesBS, ETUSGS2080 Unspecified NONE
18432015-08-14 13:18PSTYesBS, ETUSGS2350 Unspecified NONE
18422015-08-14 13:14PSTYesBS, ETUSGS2540 Unspecified NONE
18412015-08-14 13:10PSTYesBS, ETUSGS2560 Unspecified NONE
18402015-08-14 13:05PSTYesBS, ETUSGS2460 Unspecified NONE
18392015-08-14 13:00PSTYesBS, ETUSGS2570 Unspecified NONE
18382015-08-14 12:53PSTYesBS, ETUSGS2720 Unspecified NONE
18372015-08-14 12:49PSTYesBS, ETUSGS2750 Unspecified NONE
18362015-08-14 12:44PSTYesBS, ETUSGS2890 Unspecified NONE
18352015-08-14 12:40PSTYesBS, ETUSGS2930 Unspecified NONE
18342015-08-14 12:35PSTYesBS, ETUSGS3030 Unspecified NONE
18332015-08-14 12:31PSTYesBS, ETUSGS2720 Unspecified NONE
18322015-08-14 12:27PSTYesBS, ETUSGS2870 Unspecified NONE
18312015-08-14 12:23PSTYesBS, ETUSGS2970 Unspecified NONE
18302015-08-14 12:18PSTYesBS, ETUSGS2980 Unspecified NONE
18292015-08-14 12:14PSTYesBS, ETUSGS2910 Unspecified NONE
18282015-08-14 12:09PSTYesBS, ETUSGS3010 Unspecified NONE
18272015-08-14 12:01PSTYesBS, ETUSGS3050 Unspecified NONE
18262015-08-14 11:55PSTYesBS, ETUSGS2920 Unspecified NONE
18252015-08-14 11:51PSTYesBS, ETUSGS3070 Unspecified NONE
18242015-08-14 11:45PSTYesBS, ETUSGS2870 Unspecified NONE
18232015-08-14 11:40PSTYesBS, ETUSGS3020 Unspecified NONE
18222015-08-14 11:35PSTYesBS, ETUSGS3000 Unspecified NONE
18212015-08-14 11:30PSTYesBS, ETUSGS3040 Unspecified NONE
18202015-08-14 11:25PSTYesBS, ETUSGS2980 Unspecified NONE
18192015-08-14 11:22PSTYesBS, ETUSGS2880 Unspecified NONE
18182015-08-14 11:17PSTYesBS, ETUSGS3110 Unspecified NONE
18172015-08-14 11:13PSTYesBS, ETUSGS3060 Unspecified NONE
18162015-08-14 11:08PSTYesBS, ETUSGS3020 Unspecified NONE
18152015-08-14 11:03PSTYesBS, ETUSGS3070 Unspecified NONE
18142015-08-14 10:58PSTYesBS, ETUSGS3120 Unspecified NONE
18132015-08-14 10:54PSTYesBS, ETUSGS3060 Unspecified NONE
18122015-08-14 10:49PSTYesBS, ETUSGS3080 Unspecified NONE
18112015-08-14 10:45PSTYesBS, ETUSGS2890 Unspecified NONE
18102015-08-14 10:39PSTYesBS, ETUSGS3010 Unspecified NONE
18092015-08-14 10:35PSTYesBS, ETUSGS2900 Unspecified NONE
18082015-08-14 10:30PSTYesBS, ETUSGS2900 Unspecified NONE
18072015-08-14 10:26PSTYesBS, ETUSGS2750 Unspecified NONE
18062015-08-14 10:21PSTYesBS, ETUSGS2880 Unspecified NONE
18052015-08-14 10:16PSTYesBS, ETUSGS2790 Unspecified NONE
18042015-08-14 10:10PSTYesBS, ETUSGS2960 Unspecified NONE
18032015-08-14 10:06PSTYesBS, ETUSGS2750 Unspecified NONE
18022015-08-14 09:58PSTYesBS, ETUSGS2760 Unspecified NONE
18012015-08-14 09:53PSTYesBS, ETUSGS2840 Unspecified NONE
18002015-08-14 09:47PSTYesBS, ETUSGS2740 Unspecified NONE
17992015-08-14 09:42PSTYesBS, ETUSGS2730 Unspecified NONE
17982015-08-14 09:35PSTYesBS, ETUSGS2800 Unspecified NONE
17972015-08-14 09:27PSTYesBS, ETUSGS2740 Unspecified NONE
17962015-08-14 09:22PSTYesBS, ETUSGS2550 Unspecified NONE
17952015-08-14 09:18PSTYesBS, ETUSGS2750 Unspecified NONE
17942015-07-29 13:59PSTYesBS/CEUSGS-2090 Unspecified NONE
17932015-07-29 13:53PSTYesBS/CEUSGS-1960 Unspecified NONE
17922015-07-29 13:47PSTYesBS/CEUSGS-1880 Unspecified NONE
17912015-07-29 13:41PSTYesBS/CEUSGS-1720 Unspecified NONE
17902015-07-29 13:36PSTYesBS/CEUSGS-1570 Unspecified NONE
17892015-07-29 13:32PSTYesBS/CEUSGS-1400 Unspecified NONE
17882015-06-18 13:58PSTYesBJS/SHUSGS2900 Unspecified NONE
17872015-06-18 13:50PSTYesBJS/SHUSGS2990 Unspecified NONE
17862015-06-18 13:46PSTYesBJS/SHUSGS2850 Unspecified NONE
17852015-06-18 13:40PSTYesBJS/SHUSGS3140 Unspecified NONE
17842015-06-18 13:35PSTYesBJS/SHUSGS2960 Unspecified NONE
17832015-06-18 13:27PSTYesBJS/SHUSGS2960 Unspecified NONE
17822015-04-22 18:32:20PSTYesBS/ADUSGS-2670 Unspecified NONE
17812015-04-22 18:26:34PSTYesBS/ADUSGS-2540 Unspecified NONE
17802015-04-22 18:21:19PSTYesBS/ADUSGS-2610 Unspecified NONE
17792015-04-22 18:16:11PSTYesBS/ADUSGS-2780 Unspecified NONE
17782015-04-22 18:11:12PSTYesBS/ADUSGS-2720 Unspecified NONE
17772015-04-22 18:04:43PSTYesBS/ADUSGS-2610 Unspecified NONE
17762015-04-22 17:59:12PSTYesBS/ADUSGS-2460 Unspecified NONE
17752015-04-22 17:53:44PSTYesBS/ADUSGS-2370 Unspecified NONE
17742015-04-22 17:47:05PSTYesBS/ADUSGS-2310 Unspecified NONE
17732015-04-22 17:40:24PSTYesBS/ADUSGS-2040 Unspecified NONE
17722015-04-22 17:34:12PSTYesBS/ADUSGS-1790 Unspecified NONE
17712015-04-22 17:27:34PSTYesBS/ADUSGS-1380 Unspecified NONE
17702015-04-22 17:21:42PSTYesBS/ADUSGS-1120 Unspecified NONE
17692015-04-22 17:15:27PSTYesBS/ADUSGS-600 Unspecified NONE
17682015-04-22 17:06:56PSTYesBS/ADUSGS-20.8 Unspecified NONE
17672015-04-22 17:00:35PSTYesBS/ADUSGS465 Unspecified NONE
17662015-04-22 16:47:21PSTYesBS/ADUSGS1340 Unspecified NONE
17652015-04-22 16:41:37PSTYesBS/ADUSGS1720 Unspecified NONE
17642015-04-22 16:36:54PSTYesBS/ADUSGS1940 Unspecified NONE
17632015-04-22 16:30:44PSTYesBS/ADUSGS2030 Unspecified NONE
17622015-04-22 16:24:32PSTYesBS/ADUSGS2410 Unspecified NONE
17612015-04-22 16:17:39PSTYesBS/ADUSGS2490 Unspecified NONE
17602015-04-22 16:10:51PSTYesBS/ADUSGS2590 Unspecified NONE
17592015-04-22 16:03:11PSTYesBS/ADUSGS2790 Unspecified NONE
17582015-04-22 15:56:34PSTYesBS/ADUSGS2890 Unspecified NONE
17572015-04-22 15:49:45PSTYesBS/ADUSGS2930 Unspecified NONE
17562015-04-22 15:43:45PSTYesBS/ADUSGS3040 Unspecified NONE
17552015-04-22 15:37:18PSTYesBS/ADUSGS3180 Unspecified NONE
17542015-04-22 15:30:51PSTYesBS/ADUSGS3130 Unspecified NONE
17532015-04-22 15:24:51PSTYesBS/ADUSGS3280 Unspecified NONE
17522015-04-22 15:18:53PSTYesBS/ADUSGS3210 Unspecified NONE
17512015-04-22 15:13:17PSTYesBS/ADUSGS3260 Unspecified NONE
17502015-04-22 15:08:03PSTYesBS/ADUSGS3200 Unspecified NONE
17492015-04-22 15:01:30PSTYesBS/ADUSGS3210 Unspecified NONE
17482015-04-22 14:55:54PSTYesBS/ADUSGS3320 Unspecified NONE
17472015-04-22 14:49:46PSTYesBS/ADUSGS3170 Unspecified NONE
17462015-04-22 14:44:25PSTYesBS/ADUSGS3390 Unspecified NONE
17452015-04-22 14:38:41PSTYesBS/ADUSGS3440 Unspecified NONE
17442015-04-22 14:33:12PSTYesBS/ADUSGS3430 Unspecified NONE
17432015-04-22 14:27:22PSTYesBS/ADUSGS3490 Unspecified NONE
17422015-04-22 14:22:26PSTYesBS/ADUSGS3320 Unspecified NONE
17412015-04-22 14:16:54PSTYesBS/ADUSGS3510 Unspecified NONE
17402015-04-22 14:11:35PSTYesBS/ADUSGS3430 Unspecified NONE
17392015-04-22 14:06:30PSTYesBS/ADUSGS3300 Unspecified NONE
17382015-04-22 14:00:56PSTYesBS/ADUSGS3500 Unspecified NONE
17372015-04-22 13:54:57PSTYesBS/ADUSGS3570 Unspecified NONE
17362015-04-22 13:49:38PSTYesBS/ADUSGS3480 Unspecified NONE
17352015-04-22 13:44:38PSTYesBS/ADUSGS3590 Unspecified NONE
17342015-04-22 13:31:18PSTYesBS/ADUSGS3330 Unspecified NONE
17332015-04-22 13:24:41PSTYesBS/ADUSGS3520 Unspecified NONE
17322015-04-22 13:17:49PSTYesBS/ADUSGS3480 Unspecified NONE
17312015-04-22 13:11:05PSTYesBS/ADUSGS3550 Unspecified NONE
17302015-04-22 13:04:24PSTYesBS/ADUSGS3480 Unspecified NONE
17292015-04-22 12:58:26PSTYesBS/ADUSGS3330 Unspecified NONE
17282015-04-22 12:51:35PSTYesBS/ADUSGS3630 Unspecified NONE
17272015-04-22 12:44:57PSTYesBS/ADUSGS3470 Unspecified NONE
17262015-04-22 12:31:48PSTYesBS/ADUSGS3330 Unspecified NONE
17252015-04-22 12:25:20PSTYesBS/ADUSGS3350 Unspecified NONE
17242015-04-22 12:16:11PSTYesBS/ADUSGS3320 Unspecified NONE
17232015-04-22 12:08:24PSTYesBS/ADUSGS3240 Unspecified NONE
17222015-04-22 12:02:43PSTYesBS/ADUSGS3280 Unspecified NONE
17212015-04-22 11:56:12PSTYesBS/ADUSGS3200 Unspecified NONE
17202015-04-22 11:49:43PSTYesBS/ADUSGS3150 Unspecified NONE
17192015-04-22 11:42:43PSTYesBS/ADUSGS3080 Unspecified NONE
17182015-04-22 11:36:34PSTYesBS/ADUSGS3240 Unspecified NONE
17172015-04-22 11:29:02PSTYesBS/ADUSGS3210 Unspecified NONE
17162015-04-22 11:21:19PSTYesBS/ADUSGS3070 Unspecified NONE
17152015-04-22 11:13:16PSTYesBS/ADUSGS3340 Unspecified NONE
17142015-04-22 11:06:57PSTYesBS/ADUSGS3120 Unspecified NONE
17132015-04-22 11:00:05PSTYesBS/ADUSGS3020 Unspecified NONE
17122015-04-22 08:31:56PSTYesBS/ADUSGS-940 Unspecified NONE
17112015-04-22 08:27:09PSTYesBS/ADUSGS-1250 Unspecified NONE
17102015-04-22 08:22:47PSTYesBS/ADUSGS-1390 Unspecified NONE
17092015-04-22 08:16:46PSTYesBS/ADUSGS-1670 Unspecified NONE
17082015-04-22 08:10:52PSTYesBS/ADUSGS-1880 Unspecified NONE
17072015-04-22 08:04:32PSTYesBS/ADUSGS-1910 Unspecified NONE
17062015-04-22 07:58:50PSTYesBS/ADUSGS-2190 Unspecified NONE
17052015-04-22 07:54:12PSTYesBS/ADUSGS-2310 Unspecified NONE
17042015-04-22 07:47:11PSTYesBS/ADUSGS-2360 Unspecified NONE
17032015-04-22 07:41:49PSTYesBS/ADUSGS-2520 Unspecified NONE
17022015-04-22 07:35PSTYesBS/ADUSGS-2600 Unspecified NONE
17012015-04-22 07:29:08PSTYesBS/ADUSGS-2930 Unspecified NONE
17002015-04-22 07:22:58PSTYesBS/ADUSGS-2790 Unspecified NONE
16992015-04-22 07:16:27PSTYesBS/ADUSGS-2800 Unspecified NONE
16982015-04-22 07:11:14PSTYesBS/ADUSGS-2710 Unspecified NONE
16972015-04-22 07:06:13PSTYesBS/ADUSGS-2960 Unspecified NONE
16962015-04-22 07:00:37PSTYesBS/ADUSGS-3030 Unspecified NONE
16952015-04-22 06:54:38PSTYesBS/ADUSGS-2800 Unspecified NONE
16942015-02-02 12:56PSTYesAD/BSUSGS-31104.36 UnspecifiedUnspecifedNONE
16932015-02-02 12:50PSTYesAD/BSUSGS-28404.29 UnspecifiedUnspecifedNONE
16922015-02-02 12:44PSTYesAD/BSUSGS-27804.22 UnspecifiedUnspecifedNONE
16912015-02-02 12:38PSTYesAD/BSUSGS-26804.15 UnspecifiedUnspecifedNONE
16902015-02-02 12:32PSTYesAD/BSUSGS-24204.04 UnspecifiedUnspecifedNONE
16892015-02-02 12:26PSTYesAD/BSUSGS-22603.92 UnspecifiedUnspecifedNONE
16882015-02-02 12:19PSTYesAD/BSUSGS-20003.85 UnspecifiedUnspecifedNONE
16872015-02-02 12:16PSTYesAD/BSUSGS-18003.76 UnspecifiedUnspecifedNONE
16862014-08-15 13:05PSTYesYESUSGS2410 Unspecified NONE
16852014-08-15 13:01PSTYesYESUSGS2300 Unspecified NONE
16842014-08-15 12:58PSTYesYESUSGS2380 Unspecified NONE
16832014-08-15 12:53PSTYesYESUSGS2370 Unspecified NONE
16822014-08-15 12:25PSTYesYESUSGS2340 Unspecified NONE
16812014-08-15 12:22PSTYesYESUSGS2430 Unspecified NONE
16802014-08-15 12:18PSTYesYESUSGS2360 Unspecified NONE
16792014-08-15 12:15PSTYesYESUSGS2280 Unspecified NONE
16782014-08-15 12:11PSTYesYESUSGS2410 Unspecified NONE
16772014-08-15 12:06PSTYesYESUSGS2410 Unspecified NONE
16762014-08-15 12:02PSTYesYESUSGS2350 Unspecified NONE
16752014-08-15 11:57PSTYesYESUSGS2360 Unspecified NONE
16742014-08-15 11:52PSTYesYESUSGS2350 Unspecified NONE
16732014-08-15 11:47PSTYesYESUSGS2290 Unspecified NONE
16722014-08-15 11:43PSTYesYESUSGS2240 Unspecified NONE
16712014-08-15 11:40PSTYesYESUSGS2230 Unspecified NONE
16702014-08-15 11:04PSTYesYESUSGS1440 Unspecified NONE
16692014-08-15 10:59PSTYesYESUSGS1160 Unspecified NONE
16682014-08-15 10:51PSTYesYESUSGS832 Unspecified NONE
16672014-08-15 10:43PSTYesYESUSGS280 Unspecified NONE
16662011-04-07 12:55PSTYesYESUSGS11500 Unspecified NONE
16652011-04-07 12:51PSTYesYESUSGS11300 Unspecified NONE
16642011-04-07 12:47PSTYesYESUSGS11600 Unspecified NONE
16632011-04-07 12:43PSTYesYESUSGS11100 Unspecified NONE
16622010-08-12 08:47PSTYesYESUSGS1940 Unspecified NONE
16612010-08-12 08:43PSTYesYESUSGS1870 Unspecified NONE
16602010-08-12 08:40PSTYesYESUSGS1650 Unspecified NONE
16592010-08-12 08:36PSTYesYESUSGS1520 Unspecified NONE
16582010-08-12 08:32PSTYesYESUSGS1300 Unspecified NONE
16572010-08-12 08:29PSTYesYESUSGS1000 Unspecified NONE
16562010-01-26 10:38PSTYesYESUSGS-2050 Unspecified NONE
16552010-01-26 10:35PSTYesYESUSGS-2030 Unspecified NONE
16542010-01-26 10:32PSTYesYESUSGS-2030 Unspecified NONE
16532010-01-26 10:29PSTYesYESUSGS-2070 Unspecified NONE
16522010-01-26 10:26PSTYesYESUSGS-2050 Unspecified NONE
16512010-01-26 10:23PSTYesYESUSGS-2030 Unspecified NONE
16502009-11-06 17:12PSTYesYESUSGS-3120 Unspecified NONE
16492009-11-06 17:08PSTYesYESUSGS-3040 Unspecified NONE
16482009-11-06 17:01PSTYesYESUSGS-3110 Unspecified NONE
16472009-11-06 16:57PSTYesYESUSGS-3190 Unspecified NONE
16462009-11-06 16:35PSTYesYESUSGS-3110 Unspecified NONE
16452009-11-06 16:31PSTYesYESUSGS-3000 Unspecified NONE
16442009-11-06 16:24PSTYesYESUSGS-2970 Unspecified NONE
16432009-11-06 16:21PSTYesYESUSGS-3080 Unspecified NONE
16422009-11-06 16:17PSTYesYESUSGS-2980 Unspecified NONE
16412009-11-06 16:13PSTYesYESUSGS-3080 Unspecified NONE
16402009-11-06 15:36PSTYesYESUSGS-2870 Unspecified NONE
16392009-11-06 15:32PSTYesYESUSGS-2840 Unspecified NONE
16382009-11-06 15:29PSTYesYESUSGS-2830 Unspecified NONE
16372009-11-06 15:26PSTYesYESUSGS-2800 Unspecified NONE
16362009-11-06 15:23PSTYesYESUSGS-2680 Unspecified NONE
16352009-11-06 15:20PSTYesYESUSGS-2500 Unspecified NONE
16342009-11-06 15:17PSTYesYESUSGS-2430 Unspecified NONE
16332009-11-06 15:11PSTYesYESUSGS-2250 Unspecified NONE
16322009-11-06 15:06PSTYesYESUSGS-2090 Unspecified NONE
16312009-11-06 15:01PSTYesYESUSGS-1930 Unspecified NONE
16302009-11-06 14:56PSTYesYESUSGS-1670 Unspecified NONE
16292009-11-06 14:51PSTYesYESUSGS-1440 Unspecified NONE
16282009-11-06 14:48PSTYesYESUSGS-1190 Unspecified NONE
16272009-11-06 14:44PSTYesYESUSGS-902 Unspecified NONE
16262009-11-06 14:38PSTYesYESUSGS-540 Unspecified NONE
16252009-11-06 14:31PSTYesYESUSGS-74.7 Unspecified NONE
16242009-11-06 14:22PSTYesYESUSGS276 Unspecified NONE
16232009-11-06 14:18PSTYesYESUSGS603 Unspecified NONE
16222009-11-06 14:10PSTYesYESUSGS798 Unspecified NONE
16212009-11-06 14:04PSTYesYESUSGS1020 Unspecified NONE
16202009-11-06 13:59PSTYesYESUSGS1110 Unspecified NONE
16192009-11-06 13:54PSTYesYESUSGS1290 Unspecified NONE
16182009-11-06 13:48PSTYesYESUSGS1430 Unspecified NONE
16172009-11-06 13:41PSTYesYESUSGS1590 Unspecified NONE
16162009-11-06 13:35PSTYesYESUSGS1680 Unspecified NONE
16152009-11-06 13:30PSTYesYESUSGS1840 Unspecified NONE
16142009-11-06 13:24PSTYesYESUSGS1880 Unspecified NONE
16132009-11-06 13:19PSTYesYESUSGS2070 Unspecified NONE
16122009-11-06 13:13PSTYesYESUSGS2080 Unspecified NONE
16112009-11-06 12:49PSTYesYESUSGS2390 Unspecified NONE
16102009-11-06 12:43PSTYesYESUSGS2480 Unspecified NONE
16092009-11-06 12:38PSTYesYESUSGS2510 Unspecified NONE
16082009-11-06 12:33PSTYesYESUSGS2510 Unspecified NONE
16072009-11-06 12:08PSTYesYESUSGS2550 Unspecified NONE
16062009-11-06 11:56PSTYesYESUSGS2490 Unspecified NONE
16052009-11-06 11:47PSTYesYESUSGS2510 Unspecified NONE
16042009-11-06 11:40PSTYesYESUSGS2280 Unspecified NONE
16032009-11-06 11:33PSTYesYESUSGS2200 Unspecified NONE
16022009-11-06 11:26PSTYesYESUSGS2000 Unspecified NONE
16012009-11-06 11:21PSTYesYESUSGS1850 Unspecified NONE
16002009-11-06 11:14PSTYesYESUSGS1640 Unspecified NONE
15992009-11-06 11:10PSTYesYESUSGS1450 Unspecified NONE
15982009-11-06 10:26PSTYesYESUSGS-345 Unspecified NONE
15972009-11-06 10:18PSTYesYESUSGS-590 Unspecified NONE
15962009-11-06 10:14PSTYesYESUSGS-877 Unspecified NONE
15952009-11-06 10:03PSTYesYESUSGS-1100 Unspecified NONE
15942009-11-06 09:57PSTYesYESUSGS-1330 Unspecified NONE
15932009-11-06 08:57PSTYesYESUSGS-2120 Unspecified NONE
15922009-11-06 08:52PSTYesYESUSGS-2340 Unspecified NONE
15912009-11-06 08:44PSTYesYESUSGS-2260 Unspecified NONE
15902009-11-06 08:39PSTYesYESUSGS-2390 Unspecified NONE
15892009-11-06 08:33PSTYesYESUSGS-2300 Unspecified NONE
15882009-11-06 08:29PSTYesYESUSGS-2310 Unspecified NONE
15872009-11-06 08:23PSTYesYESUSGS-2270 Unspecified NONE
15862009-11-06 08:18PSTYesYESUSGS-2350 Unspecified NONE
15852009-11-06 08:02PSTYesYESUSGS-2220 Unspecified NONE
15842009-11-06 07:57PSTYesYESUSGS-2280 Unspecified NONE
15832009-11-06 07:53PSTYesYESUSGS-2250 Unspecified NONE
15822009-11-06 07:46PSTYesYESUSGS-2200 Unspecified NONE
15812009-11-06 07:43PSTYesYESUSGS-2170 Unspecified NONE
15802009-11-06 07:32PSTYesYESUSGS-2120 Unspecified NONE
15792009-06-23 10:16PSTYesYESUSGS3810 Unspecified NONE
15782009-06-23 10:04PSTYesYESUSGS3870 Unspecified NONE
15772009-06-23 10:00PSTYesYESUSGS3990 Unspecified NONE
15762009-06-23 09:36PSTYesYESUSGS3700 Unspecified NONE
15752009-06-23 09:33PSTYesYESUSGS3740 Unspecified NONE
15742009-06-23 09:30PSTYesYESUSGS3710 Unspecified NONE
15732009-06-23 09:23PSTYesYESUSGS3700 Unspecified NONE
15722009-06-23 09:20PSTYesYESUSGS3690 Unspecified NONE
15712009-06-23 09:14PSTYesYESUSGS3590 Unspecified NONE
15702009-06-23 09:11PSTYesYESUSGS3600 Unspecified NONE
15692009-06-23 09:06PSTYesYESUSGS3680 Unspecified NONE
15682009-06-23 09:03PSTYesYESUSGS3540 Unspecified NONE
15672009-06-23 07:28PSTYesYESUSGS1810 Unspecified NONE
15562008-08-19 12:53PSTYesBJS/PKxUSGS31403.14 Unspecified NONE
15552008-08-19 12:50PSTYesBJS/PKxUSGS31103.16 Unspecified NONE
15542008-08-19 12:48PSTYesBJS/PKxUSGS31103.17 Unspecified NONE
15532008-08-19 12:45PSTYesBJS/PKxUSGS29003.19 Unspecified NONE
15522008-08-19 12:43PSTYesBJS/PKxUSGS31103.21 Unspecified NONE
15512008-08-19 12:40PSTYesBJS/PKxUSGS30103.23 Unspecified NONE
15502008-08-19 12:38PSTYesBJS/PKxUSGS31203.24 Unspecified NONE
15492008-08-19 12:35PSTYesBJS/PKxUSGS31203.26 Unspecified NONE
15482008-08-19 12:32PSTYesBJS/PKxUSGS30703.28 Unspecified NONE
15472008-08-19 12:30PSTYesBJS/PKxUSGS30303.30 Unspecified NONE
15462008-07-29 10:27PSTYesBJS/MMxUSGS34102.79 Unspecified NONE
15452008-07-29 10:23PSTYesBJS/MMxUSGS36102.82 Unspecified NONE
15442008-07-29 10:18PSTYesBJS/MMxUSGS35602.85 Unspecified NONE
15432008-07-29 10:12PSTYesBJS/MMxUSGS35202.89 Unspecified NONE
15422008-07-29 10:07PSTYesBJS/MMxUSGS36302.93 Unspecified NONE
15412008-07-29 10:02PSTYesBJS/MMxUSGS35202.96 Unspecified NONE
15402008-07-29 09:58PSTYesBJS/MMxUSGS36002.99 Unspecified NONE
15392008-07-29 09:54PSTYesBJS/MMxUSGS36103.02 Unspecified NONE
15382008-07-29 09:48PSTYesBJS/MMxUSGS36503.07 Unspecified NONE
15372008-07-29 09:45PSTYesBJS/MMxUSGS36103.09 Unspecified NONE
15362008-05-14 17:35PSTYesTMG/CRBUSGS31803.09 Unspecified NONE
15352008-05-14 17:33PSTYesTMG/CRBUSGS31803.10 Unspecified NONE
15342008-05-14 17:30PSTYesTMG/CRBUSGS32703.12 Unspecified NONE
15332008-05-14 17:28PSTYesTMG/CRBUSGS33303.13 Unspecified NONE
15322008-05-14 17:25PSTYesTMG/CRBUSGS32503.14 Unspecified NONE
15312008-05-14 17:23PSTYesTMG/CRBUSGS32203.16 Unspecified NONE
15302008-05-14 17:20PSTYesTMG/CRBUSGS33603.17 Unspecified NONE
15292008-05-14 17:17PSTYesTMG/CRBUSGS32303.19 Unspecified NONE
15282008-05-14 17:15PSTYesTMG/CRBUSGS33303.20 Unspecified NONE
15272008-05-14 17:12PSTYesTMG/CRBUSGS35903.22 Unspecified NONE
15262008-05-14 17:07PSTYesTMG/CRBUSGS34203.26 Unspecified NONE
15252008-05-14 17:04PSTYesTMG/CRBUSGS33803.27 Unspecified NONE
15242008-05-14 17:01PSTYesTMG/CRBUSGS33803.29 Unspecified NONE
15232008-05-14 16:58PSTYesTMG/CRBUSGS35803.32 Unspecified NONE
15222008-05-14 16:55PSTYesTMG/CRBUSGS35403.33 Unspecified NONE
15212008-05-14 16:53PSTYesTMG/CRBUSGS36203.35 Unspecified NONE
15202008-05-14 16:50PSTYesTMG/CRBUSGS35003.37 Unspecified NONE
15192008-05-14 16:48PSTYesTMG/CRBUSGS34703.39 Unspecified NONE
15182008-05-14 16:45PSTYesTMG/CRBUSGS35803.41 Unspecified NONE
15172008-05-14 16:42PSTYesTMG/CRBUSGS36903.44 Unspecified NONE
15162008-05-14 16:39PSTYesTMG/CRBUSGS36503.47 Unspecified NONE
15152008-05-14 16:34PSTYesTMG/CRBUSGS35103.51 Unspecified NONE
15142008-05-14 16:32PSTYesTMG/CRBUSGS35803.53 Unspecified NONE
15132008-05-14 16:29PSTYesTMG/CRBUSGS34203.56 Unspecified NONE
15122008-05-14 16:26PSTYesTMG/CRBUSGS36103.59 Unspecified NONE
15112008-05-14 16:23PSTYesTMG/CRBUSGS36403.62 Unspecified NONE
15102008-05-14 16:20PSTYesTMG/CRBUSGS37403.65 Unspecified NONE
15092008-05-14 16:17PSTYesTMG/CRBUSGS35503.68 Unspecified NONE
15082008-05-14 16:14PSTYesTMG/CRBUSGS35703.71 Unspecified NONE
15072008-05-14 16:11PSTYesTMG/CRBUSGS35103.75 Unspecified NONE
15062008-05-14 16:08PSTYesTMG/CRBUSGS35603.79 Unspecified NONE
15052008-05-14 16:05PSTYesTMG/CRBUSGS36103.83 Unspecified NONE
15042008-05-14 16:01PSTYesTMG/CRBUSGS33803.88 Unspecified NONE
15032008-05-14 15:58PSTYesTMG/CRBUSGS32903.91 Unspecified NONE
15022008-05-14 15:55PSTYesTMG/CRBUSGS34003.94 Unspecified NONE
15012008-05-14 15:52PSTYesTMG/CRBUSGS33703.98 Unspecified NONE
15002008-05-14 15:49PSTYesTMG/CRBUSGS32804.01 Unspecified NONE
14992008-05-14 15:46PSTYesTMG/CRBUSGS31104.04 Unspecified NONE
14982008-05-14 15:43PSTYesTMG/CRBUSGS31204.07 Unspecified NONE
14972008-05-14 15:40PSTYesTMG/CRBUSGS31004.10 Unspecified NONE
14962008-05-14 15:37PSTYesTMG/CRBUSGS30704.13 Unspecified NONE
14952008-05-14 15:34PSTYesTMG/CRBUSGS29604.16 Unspecified NONE
14942008-05-14 15:32PSTYesTMG/CRBUSGS29204.18 Unspecified NONE
14932008-05-14 15:29PSTYesTMG/CRBUSGS28504.21 Unspecified NONE
14922008-05-14 15:27PSTYesTMG/CRBUSGS28004.23 Unspecified NONE
14912008-05-14 15:24PSTYesTMG/CRBUSGS27004.26 Unspecified NONE
14902008-05-14 15:22PSTYesTMG/CRBUSGS26104.28 Unspecified NONE
14892008-05-14 15:19PSTYesTMG/CRBUSGS25404.31 Unspecified NONE
14882008-05-14 15:16PSTYesTMG/CRBUSGS24704.34 Unspecified NONE
14872008-05-14 15:14PSTYesTMG/CRBUSGS22904.36 Unspecified NONE
14862008-05-14 15:12PSTYesTMG/CRBUSGS22404.37 Unspecified NONE
14852008-05-14 15:09PSTYesTMG/CRBUSGS21704.39 Unspecified NONE
14842008-05-14 14:46PSTYesTMG/CRBUSGS12704.54 Unspecified NONE
14832008-05-14 14:44PSTYesTMG/CRBUSGS11804.56 Unspecified NONE
14822008-05-14 14:39PSTYesTMG/CRBUSGS9284.58 Unspecified NONE
14812008-05-14 14:36PSTYesTMG/CRBUSGS8044.59 Unspecified NONE
14802008-05-14 14:34PSTYesTMG/CRBUSGS7064.60 Unspecified NONE
14792008-05-14 14:31PSTYesTMG/CRBUSGS6054.61 Unspecified NONE
14782008-05-14 14:28PSTYesTMG/CRBUSGS5204.62 Unspecified NONE
14772008-05-14 14:26PSTYesTMG/CRBUSGS5054.63 Unspecified NONE
14762008-05-14 14:23PSTYesTMG/CRBUSGS4054.63 Unspecified NONE
14752008-05-14 14:18PSTYesTMG/CRBUSGS1704.64 Unspecified NONE
14742008-05-14 14:15PSTYesTMG/CRBUSGS1054.64 Unspecified NONE
14732008-05-14 14:13PSTYesTMG/CRBUSGS55.04.64 Unspecified NONE
14722008-05-14 14:11PSTYesTMG/CRBUSGS-74.04.64 Unspecified NONE
14712008-05-14 14:08PSTYesTMG/CRBUSGS-91.04.64 Unspecified NONE
14702008-05-14 13:49PSTYesTMG/CRBUSGS-4784.62 Unspecified NONE
14692008-05-14 13:47PSTYesTMG/CRBUSGS-5094.61 Unspecified NONE
14682008-05-14 13:44PSTYesTMG/CRBUSGS-4764.61 Unspecified NONE
14672008-05-14 13:41PSTYesTMG/CRBUSGS-5714.60 Unspecified NONE
14662008-05-14 13:13PSTYesTMG/CRBUSGS-5644.50 Unspecified NONE
14652008-05-14 13:10PSTYesTMG/CRBUSGS-5564.49 Unspecified NONE
14642008-05-14 13:07PSTYesTMG/CRBUSGS-5094.48 Unspecified NONE
14632008-05-14 13:05PSTYesTMG/CRBUSGS-5054.47 Unspecified NONE
14622008-05-14 12:51PSTYesTMG/CRBUSGS-5054.42 Unspecified NONE
14612008-05-14 12:49PSTYesTMG/CRBUSGS-4364.41 Unspecified NONE
14602008-05-14 12:39PSTYesTMG/CRBUSGS-5054.38 Unspecified NONE
14592008-05-14 12:36PSTYesTMG/CRBUSGS-4374.37 Unspecified NONE
14582008-05-14 12:34PSTYesTMG/CRBUSGS-4624.35 Unspecified NONE
14572008-05-14 12:31PSTYesTMG/CRBUSGS-5454.34 Unspecified NONE
14562008-05-14 12:28PSTYesTMG/CRBUSGS-6094.33 Unspecified NONE
14552008-05-14 12:26PSTYesTMG/CRBUSGS-6444.32 Unspecified NONE
14542008-05-14 12:23PSTYesTMG/CRBUSGS-7304.31 Unspecified NONE
14532008-05-14 12:21PSTYesTMG/CRBUSGS-6664.30 Unspecified NONE
14522008-05-14 12:18PSTYesTMG/CRBUSGS-7394.29 Unspecified NONE
14512008-05-14 12:16PSTYesTMG/CRBUSGS-7284.27 Unspecified NONE
14502008-05-14 11:50PSTYesTMG/CRBUSGS-12604.15 Unspecified NONE
14492008-05-14 11:47PSTYesTMG/CRBUSGS-12804.13 Unspecified NONE
14482008-05-14 11:44PSTYesTMG/CRBUSGS-14204.11 Unspecified NONE
14472008-05-14 11:41PSTYesTMG/CRBUSGS-14404.09 Unspecified NONE
14462008-05-14 11:38PSTYesTMG/CRBUSGS-14704.07 Unspecified NONE
14452008-05-14 11:36PSTYesTMG/CRBUSGS-15404.05 Unspecified NONE
14442008-05-14 11:33PSTYesTMG/CRBUSGS-14804.03 Unspecified NONE
14432008-05-14 11:30PSTYesTMG/CRBUSGS-15704.01 Unspecified NONE
14422008-05-14 11:27PSTYesTMG/CRBUSGS-16303.98 Unspecified NONE
14412008-05-14 11:24PSTYesTMG/CRBUSGS-16503.95 Unspecified NONE
14402008-05-14 11:15PSTYesTMG/CRBUSGS-16203.86 Unspecified NONE
14392008-05-14 11:12PSTYesTMG/CRBUSGS-16703.83 Unspecified NONE
14382008-05-14 11:09PSTYesTMG/CRBUSGS-16303.80 Unspecified NONE
14372008-05-14 11:07PSTYesTMG/CRBUSGS-15703.77 Unspecified NONE
14362008-05-14 11:04PSTYesTMG/CRBUSGS-15203.74 Unspecified NONE
14352008-05-14 11:01PSTYesTMG/CRBUSGS-14903.71 Unspecified NONE
14342008-05-14 10:59PSTYesTMG/CRBUSGS-15403.68 Unspecified NONE
14332008-05-14 10:56PSTYesTMG/CRBUSGS-14603.64 Unspecified NONE
14322008-05-14 10:54PSTYesTMG/CRBUSGS-13903.60 Unspecified NONE
14312008-05-14 10:51PSTYesTMG/CRBUSGS-12503.56 Unspecified NONE
14302008-05-14 10:48PSTYesTMG/CRBUSGS-12403.52 Unspecified NONE
14292008-05-14 10:45PSTYesTMG/CRBUSGS-10703.48 Unspecified NONE
14282008-05-14 10:42PSTYesTMG/CRBUSGS-10103.44 Unspecified NONE
14272008-05-14 10:40PSTYesTMG/CRBUSGS-9323.39 Unspecified NONE
14262008-05-14 10:36PSTYesTMG/CRBUSGS-7003.32 Unspecified NONE
14252008-05-14 10:33PSTYesTMG/CRBUSGS-6353.28 Unspecified NONE
14242008-05-14 10:28PSTYesTMG/CRBUSGS-3543.20 Unspecified NONE
14232008-05-14 10:25PSTYesTMG/CRBUSGS-2253.16 Unspecified NONE
14222008-05-14 10:23PSTYesTMG/CRBUSGS-1323.12 Unspecified NONE
14212008-05-14 10:21PSTYesTMG/CRBUSGS66.03.08 Unspecified NONE
14202008-05-14 10:18PSTYesTMG/CRBUSGS1053.04 Unspecified NONE
14192008-05-14 10:16PSTYesTMG/CRBUSGS3183.01 Unspecified NONE
14182008-05-14 10:13PSTYesTMG/CRBUSGS4332.96 Unspecified NONE
14172008-05-14 10:11PSTYesTMG/CRBUSGS6072.93 Unspecified NONE
14162008-05-14 10:08PSTYesTMG/CRBUSGS6742.89 Unspecified NONE
14152008-05-14 10:06PSTYesTMG/CRBUSGS8902.86 Unspecified NONE
14142008-05-14 10:04PSTYesTMG/CRBUSGS9332.83 Unspecified NONE
14132008-05-14 10:01PSTYesTMG/CRBUSGS11302.80 Unspecified NONE
14122008-05-14 09:58PSTYesTMG/CRBUSGS12502.76 Unspecified NONE
14112008-05-14 09:56PSTYesTMG/CRBUSGS14102.73 Unspecified NONE
14102008-05-14 09:53PSTYesTMG/CRBUSGS15102.70 Unspecified NONE
14092008-05-14 09:49PSTYesTMG/CRBUSGS16202.66 Unspecified NONE
14082008-05-14 09:47PSTYesTMG/CRBUSGS18002.63 Unspecified NONE
14072008-05-14 09:44PSTYesTMG/CRBUSGS18402.60 Unspecified NONE
14062008-05-14 09:41PSTYesTMG/CRBUSGS19602.59 Unspecified NONE
14052008-05-14 09:39PSTYesTMG/CRBUSGS20602.58 Unspecified NONE
14042008-05-14 09:16PSTYesTMG/CRBUSGS26302.50 Unspecified NONE
14032008-05-14 09:13PSTYesTMG/CRBUSGS26702.50 Unspecified NONE
14022008-05-14 09:10PSTYesTMG/CRBUSGS26202.50 Unspecified NONE
14012008-05-14 09:08PSTYesTMG/CRBUSGS26202.50 Unspecified NONE
14002008-05-14 09:05PSTYesTMG/CRBUSGS27602.51 Unspecified NONE
13992008-05-14 09:02PSTYesTMG/CRBUSGS27802.51 Unspecified NONE
13982008-05-14 08:59PSTYesTMG/CRBUSGS27702.51 Unspecified NONE
13972008-05-14 08:56PSTYesTMG/CRBUSGS29502.52 Unspecified NONE
13962008-05-14 08:53PSTYesTMG/CRBUSGS29002.53 Unspecified NONE
13952008-05-14 08:50PSTYesTMG/CRBUSGS28802.54 Unspecified NONE
13942008-05-14 08:47PSTYesTMG/CRBUSGS29402.55 Unspecified NONE
13932008-05-14 08:44PSTYesTMG/CRBUSGS30002.56 Unspecified NONE
13922008-05-14 08:18PSTYesTMG/CRBUSGS32802.66 Unspecified NONE
13912008-05-14 08:15PSTYesTMG/CRBUSGS31702.67 Unspecified NONE
13902008-05-14 08:12PSTYesTMG/CRBUSGS31902.69 Unspecified NONE
13892008-05-14 08:08PSTYesTMG/CRBUSGS33002.71 Unspecified NONE
13882008-05-14 08:04PSTYesTMG/CRBUSGS33002.73 Unspecified NONE
13872008-05-14 08:01PSTYesTMG/CRBUSGS30602.75 Unspecified NONE
13862008-05-14 07:54PSTYesTMG/CRBUSGS33702.79 Unspecified NONE
13852008-05-14 07:50PSTYesTMG/CRBUSGS32602.82 Unspecified NONE
13842008-05-14 07:32PSTYesTMG/CRBUSGS33502.93 Unspecified NONE
13832008-05-14 07:29PSTYesTMG/CRBUSGS33802.95 Unspecified NONE
13822007-11-06 15:33PSTYesJBD/CBxUSGS-10205.60 Unspecified NONE
13812007-11-06 15:30PSTYesJBD/CBxUSGS-9295.59 Unspecified NONE
13802007-11-06 15:26PSTYesJBD/CBxUSGS-10405.57 Unspecified NONE
13792007-11-06 15:23PSTYesJBD/CBxUSGS-10305.56 Unspecified NONE
13782007-11-06 15:19PSTYesJBD/CBxUSGS-11105.57 Unspecified NONE
13772007-11-06 15:16PSTYesJBD/CBxUSGS-11105.55 Unspecified NONE
13762007-11-06 15:12PSTYesJBD/CBxUSGS-11605.53 Unspecified NONE
13752007-11-06 15:09PSTYesJBD/CBxUSGS-11205.51 Unspecified NONE
13742007-11-06 15:05PSTYesJBD/CBxUSGS-11305.48 Unspecified NONE
13732007-11-06 15:01PSTYesJBD/CBxUSGS-11305.47 Unspecified NONE
13722007-11-06 14:57PSTYesJBD/CBxUSGS-11705.44 Unspecified NONE
13712007-11-06 14:54PSTYesJBD/CBxUSGS-11505.42 Unspecified NONE
13702007-11-06 14:50PSTYesJBD/CBxUSGS-11205.41 Unspecified NONE
13692007-11-06 14:47PSTYesJBD/CBxUSGS-11405.39 Unspecified NONE
13682007-11-06 14:43PSTYesJBD/CBxUSGS-11305.37 Unspecified NONE
13672007-11-06 14:40PSTYesJBD/CBxUSGS-10805.35 Unspecified NONE
13662007-11-06 14:36PSTYesJBD/CBxUSGS-10705.33 Unspecified NONE
13652007-11-06 14:32PSTYesJBD/CBxUSGS-10405.30 Unspecified NONE
13642007-11-06 14:29PSTYesJBD/CBxUSGS-9845.28 Unspecified NONE
13632007-11-06 14:25PSTYesJBD/CBxUSGS-9545.26 Unspecified NONE
13622007-11-06 14:21PSTYesJBD/CBxUSGS-9025.23 Unspecified NONE
13612007-11-06 14:18PSTYesJBD/CBxUSGS-8535.21 Unspecified NONE
13602007-11-06 14:14PSTYesJBD/CBxUSGS-8535.18 Unspecified NONE
13592007-11-06 14:11PSTYesJBD/CBxUSGS-7685.16 Unspecified NONE
13582007-11-06 14:07PSTYesJBD/CBxUSGS-7425.13 Unspecified NONE
13572007-11-06 14:04PSTYesJBD/CBxUSGS-7175.11 Unspecified NONE
13562007-11-06 14:00PSTYesJBD/CBxUSGS-6735.08 Unspecified NONE
13552007-11-06 13:57PSTYesJBD/CBxUSGS-6215.07 Unspecified NONE
13542007-11-06 13:54PSTYesJBD/CBxUSGS-6225.05 Unspecified NONE
13532007-11-06 13:50PSTYesJBD/CBxUSGS-5775.02 Unspecified NONE
13522007-11-06 13:47PSTYesJBD/CBxUSGS-5435.00 Unspecified NONE
13512007-11-06 13:44PSTYesJBD/CBxUSGS-5284.98 Unspecified NONE
13502007-11-06 13:40PSTYesJBD/CBxUSGS-5054.95 Unspecified NONE
13492007-11-06 13:37PSTYesJBD/CBxUSGS-4454.92 Unspecified NONE
13482007-11-06 13:34PSTYesJBD/CBxUSGS-4594.90 Unspecified NONE
13472007-11-06 13:30PSTYesJBD/CBxUSGS-4524.87 Unspecified NONE
13462007-11-06 13:27PSTYesJBD/CBxUSGS-4404.85 Unspecified NONE
13452007-11-06 13:24PSTYesJBD/CBxUSGS-4454.83 Unspecified NONE
13442007-11-06 13:20PSTYesJBD/CBxUSGS-4544.82 Unspecified NONE
13432007-11-06 13:16PSTYesJBD/CBxUSGS-4864.79 Unspecified NONE
13422007-11-06 13:13PSTYesJBD/CBxUSGS-5214.77 Unspecified NONE
13412007-11-06 13:09PSTYesJBD/CBxUSGS-5524.75 Unspecified NONE
13402007-11-06 13:06PSTYesJBD/CBxUSGS-5864.73 Unspecified NONE
13392007-11-06 13:03PSTYesJBD/CBxUSGS-6254.70 Unspecified NONE
13382007-07-30 18:32PSTYesTMG/CARUSGS-26005.11 Unspecified NONE
13372007-07-30 18:30PSTYesTMG/CARUSGS-24005.10 Unspecified NONE
13362007-07-30 18:28PSTYesTMG/CARUSGS-23905.09 Unspecified NONE
13352007-07-30 18:25PSTYesTMG/CARUSGS-23805.07 Unspecified NONE
13342007-07-30 18:22PSTYesTMG/CARUSGS-22805.05 Unspecified NONE
13332007-07-30 18:20PSTYesTMG/CARUSGS-22405.04 Unspecified NONE
13322007-07-30 18:17PSTYesTMG/CARUSGS-22205.03 Unspecified NONE
13312007-07-30 18:14PSTYesTMG/CARUSGS-23205.02 Unspecified NONE
13302007-07-30 18:12PSTYesTMG/CARUSGS-21805.01 Unspecified NONE
13292007-07-30 18:09PSTYesTMG/CARUSGS-21804.99 Unspecified NONE
13282007-07-30 18:06PSTYesTMG/CARUSGS-20004.98 Unspecified NONE
13272007-07-30 18:03PSTYesTMG/CARUSGS-19804.96 Unspecified NONE
13262007-07-30 17:59PSTYesTMG/CARUSGS-19404.92 Unspecified NONE
13252007-07-30 17:56PSTYesTMG/CARUSGS-18304.90 Unspecified NONE
13242007-07-30 17:53PSTYesTMG/CARUSGS-17804.89 Unspecified NONE
13232007-07-30 17:49PSTYesTMG/CARUSGS-18004.88 Unspecified NONE
13222007-07-30 17:47PSTYesTMG/CARUSGS-17404.86 Unspecified NONE
13212007-07-30 17:44PSTYesTMG/CARUSGS-16404.85 Unspecified NONE
13202007-07-30 17:42PSTYesTMG/CARUSGS-15504.84 Unspecified NONE
13192007-07-30 17:39PSTYesTMG/CARUSGS-15304.83 Unspecified NONE
13182007-07-30 17:35PSTYesTMG/CARUSGS-15004.81 Unspecified NONE
13172007-07-30 17:32PSTYesTMG/CARUSGS-13804.79 Unspecified NONE
13162007-07-30 17:29PSTYesTMG/CARUSGS-13804.77 Unspecified NONE
13152007-07-30 17:26PSTYesTMG/CARUSGS-12704.76 Unspecified NONE
13142007-07-30 17:22PSTYesTMG/CARUSGS-12404.75 Unspecified NONE
13132007-07-30 17:19PSTYesTMG/CARUSGS-12804.74 Unspecified NONE
13122007-07-30 17:15PSTYesTMG/CARUSGS-12404.71 Unspecified NONE
13112007-07-30 17:11PSTYesTMG/CARUSGS-14704.70 Unspecified NONE
13102007-07-30 17:08PSTYesTMG/CARUSGS-13704.68 Unspecified NONE
13092007-07-30 17:05PSTYesTMG/CARUSGS-13604.66 Unspecified NONE
13082007-07-30 17:02PSTYesTMG/CARUSGS-15204.65 Unspecified NONE
13072007-07-30 16:58PSTYesTMG/CARUSGS-16104.63 Unspecified NONE
13062007-07-30 16:54PSTYesTMG/CARUSGS-15804.61 Unspecified NONE
13052007-07-30 16:50PSTYesTMG/CARUSGS-17104.58 Unspecified NONE
13042007-07-30 16:45PSTYesTMG/CARUSGS-17604.55 Unspecified NONE
13032007-07-30 16:41PSTYesTMG/CARUSGS-18404.53 Unspecified NONE
13022007-07-30 16:37PSTYesTMG/CARUSGS-20004.50 Unspecified NONE
13012007-07-30 16:33PSTYesTMG/CARUSGS-20704.48 Unspecified NONE
13002007-07-30 16:30PSTYesTMG/CARUSGS-20704.45 Unspecified NONE
12992007-07-30 16:26PSTYesTMG/CARUSGS-22604.42 Unspecified NONE
12982007-07-30 16:22PSTYesTMG/CARUSGS-23104.38 Unspecified NONE
12972007-07-30 16:18PSTYesTMG/CARUSGS-23704.35 Unspecified NONE
12962007-07-30 16:14PSTYesTMG/CARUSGS-24604.32 Unspecified NONE
12952007-07-30 16:10PSTYesTMG/CARUSGS-24704.28 Unspecified NONE
12942007-07-30 16:06PSTYesTMG/CARUSGS-25704.25 Unspecified NONE
12932007-07-30 16:02PSTYesTMG/CARUSGS-26304.20 Unspecified NONE
12922007-07-30 15:58PSTYesTMG/CARUSGS-25504.16 Unspecified NONE
12912007-07-30 15:53PSTYesTMG/CARUSGS-26604.10 Unspecified NONE
12902007-07-30 15:50PSTYesTMG/CARUSGS-24904.05 Unspecified NONE
12892007-07-30 15:46PSTYesTMG/CARUSGS-26603.99 Unspecified NONE
12882007-07-30 15:42PSTYesTMG/CARUSGS-24503.93 Unspecified NONE
12872007-07-30 15:39PSTYesTMG/CARUSGS-23003.87 Unspecified NONE
12862007-07-30 15:35PSTYesTMG/CARUSGS-22303.81 Unspecified NONE
12852007-07-30 15:31PSTYesTMG/CARUSGS-22203.74 Unspecified NONE
12842007-07-30 15:27PSTYesTMG/CARUSGS-20603.68 Unspecified NONE
12832007-07-30 15:23PSTYesTMG/CARUSGS-20503.61 Unspecified NONE
12822007-07-30 15:20PSTYesTMG/CARUSGS-16403.54 Unspecified NONE
12812007-07-30 15:15PSTYesTMG/CARUSGS-14303.45 Unspecified NONE
12802007-07-30 15:10PSTYesTMG/CARUSGS-12503.36 Unspecified NONE
12792007-07-30 14:55PSTYesTMG/CARUSGS-2463.05 Unspecified NONE
12782007-07-30 14:50PSTYesTMG/CARUSGS2692.95 Unspecified NONE
12772007-07-30 14:42PSTYesTMG/CARUSGS8152.81 Unspecified NONE
12762007-07-30 14:38PSTYesTMG/CARUSGS11302.74 Unspecified NONE
12752007-07-30 14:34PSTYesTMG/CARUSGS13302.69 Unspecified NONE
12742007-07-30 14:30PSTYesTMG/CARUSGS15902.64 Unspecified NONE
12732007-07-30 14:25PSTYesTMG/CARUSGS17102.58 Unspecified NONE
12722007-07-30 14:21PSTYesTMG/CARUSGS20502.55 Unspecified NONE
12712007-07-30 14:18PSTYesTMG/CARUSGS21102.53 Unspecified NONE
12702007-07-30 14:14PSTYesTMG/CARUSGS22002.51 Unspecified NONE
12692007-07-30 14:11PSTYesTMG/CARUSGS22502.48 Unspecified NONE
12682007-07-30 14:07PSTYesTMG/CARUSGS24402.47 Unspecified NONE
12672007-07-30 14:04PSTYesTMG/CARUSGS25602.46 Unspecified NONE
12662007-07-30 14:01PSTYesTMG/CARUSGS27502.45 Unspecified NONE
12652007-07-30 13:57PSTYesTMG/CARUSGS26602.45 Unspecified NONE
12642007-07-30 13:54PSTYesTMG/CARUSGS28402.45 Unspecified NONE
12632007-07-30 13:51PSTYesTMG/CARUSGS29202.45 Unspecified NONE
12622007-07-30 13:48PSTYesTMG/CARUSGS29802.45 Unspecified NONE
12612007-07-30 13:45PSTYesTMG/CARUSGS30002.45 Unspecified NONE
12602007-07-30 13:42PSTYesTMG/CARUSGS31102.46 Unspecified NONE
12592007-07-30 13:39PSTYesTMG/CARUSGS29602.47 Unspecified NONE
12582007-07-30 13:36PSTYesTMG/CARUSGS31402.48 Unspecified NONE
12572007-07-30 13:33PSTYesTMG/CARUSGS30702.49 Unspecified NONE
12562007-07-30 13:30PSTYesTMG/CARUSGS32302.50 Unspecified NONE
12552007-07-30 13:27PSTYesTMG/CARUSGS31902.51 Unspecified NONE
12542007-07-30 13:24PSTYesTMG/CARUSGS33002.52 Unspecified NONE
12532007-07-30 13:22PSTYesTMG/CARUSGS31902.54 Unspecified NONE
12522007-07-30 13:19PSTYesTMG/CARUSGS32802.55 Unspecified NONE
12512007-07-30 13:16PSTYesTMG/CARUSGS32802.56 Unspecified NONE
12502007-07-30 13:14PSTYesTMG/CARUSGS32902.58 Unspecified NONE
12492007-07-30 13:11PSTYesTMG/CARUSGS32202.59 Unspecified NONE
12482007-07-30 13:08PSTYesTMG/CARUSGS33802.61 Unspecified NONE
12472007-07-30 13:06PSTYesTMG/CARUSGS33402.63 Unspecified NONE
12462007-07-30 13:03PSTYesTMG/CARUSGS33602.65 Unspecified NONE
12452007-07-30 12:59PSTYesTMG/CARUSGS33602.67 Unspecified NONE
12442007-07-30 12:56PSTYesTMG/CARUSGS33802.69 Unspecified NONE
12432007-07-30 12:53PSTYesTMG/CARUSGS35502.70 Unspecified NONE
12422007-07-30 12:50PSTYesTMG/CARUSGS34302.72 Unspecified NONE
12412007-07-30 12:47PSTYesTMG/CARUSGS33402.74 Unspecified NONE
12402007-07-30 12:44PSTYesTMG/CARUSGS35502.77 Unspecified NONE
12392007-07-30 12:41PSTYesTMG/CARUSGS35202.79 Unspecified NONE
12382007-07-30 12:38PSTYesTMG/CARUSGS34902.81 Unspecified NONE
12372007-07-30 12:36PSTYesTMG/CARUSGS34902.83 Unspecified NONE
12362007-07-30 12:33PSTYesTMG/CARUSGS36302.85 Unspecified NONE
12352007-07-30 12:30PSTYesTMG/CARUSGS35602.87 Unspecified NONE
12342007-07-30 12:26PSTYesTMG/CARUSGS36102.89 Unspecified NONE
12332007-07-30 12:19PSTYesTMG/CARUSGS34802.96 Unspecified NONE
12322007-07-30 12:16PSTYesTMG/CARUSGS36602.98 Unspecified NONE
12312007-07-30 12:13PSTYesTMG/CARUSGS36103.00 Unspecified NONE
12302007-07-30 12:09PSTYesTMG/CARUSGS35503.03 Unspecified NONE
12292007-07-30 12:06PSTYesTMG/CARUSGS35803.06 Unspecified NONE
12282007-07-30 12:03PSTYesTMG/CARUSGS36203.08 Unspecified NONE
12272007-07-30 12:01PSTYesTMG/CARUSGS33903.11 Unspecified NONE
12262007-07-30 11:57PSTYesTMG/CARUSGS36003.13 Unspecified NONE
12252007-07-30 11:54PSTYesTMG/CARUSGS34703.16 Unspecified NONE
12242007-07-30 11:51PSTYesTMG/CARUSGS36803.18 Unspecified NONE
12232007-07-30 11:48PSTYesTMG/CARUSGS35303.20 Unspecified NONE
12222007-07-30 11:45PSTYesTMG/CARUSGS35303.23 Unspecified NONE
12212007-07-30 11:42PSTYesTMG/CARUSGS35503.26 Unspecified NONE
12202007-07-30 11:38PSTYesTMG/CARUSGS35403.29 Unspecified NONE
12192007-07-30 11:22PSTYesTMG/CARUSGS35903.43 Unspecified NONE
12182007-07-30 11:19PSTYesTMG/CARUSGS35703.46 Unspecified NONE
12172007-07-30 11:14PSTYesTMG/CARUSGS35403.50 Unspecified NONE
12162006-09-08 17:22PSTYes???USGS-9635.88 Unspecified NONE
12152006-09-08 17:17PSTYes???USGS-8355.84 Unspecified NONE
12142006-09-08 17:12PSTYes???USGS-7485.82 Unspecified NONE
12132006-09-08 17:07PSTYes???USGS-6275.79 Unspecified NONE
12122006-09-08 17:00PSTYes???USGS-4755.74 Unspecified NONE
12112006-09-08 16:53PSTYes???USGS-3175.70 Unspecified NONE
12102006-09-08 16:42PSTYes???USGS-2325.65 Unspecified NONE
12092006-09-08 16:35PSTYes???USGS-2615.61 Unspecified NONE
12082006-09-08 16:29PSTYes???USGS-2565.57 Unspecified NONE
12072006-09-08 16:25PSTYes???USGS-3025.55 Unspecified NONE
12062006-09-08 16:21PSTYes???USGS-3605.53 Unspecified NONE
12052006-09-08 16:18PSTYes???USGS-4095.50 Unspecified NONE
12042006-09-08 16:14PSTYes???USGS-4735.48 Unspecified NONE
12032006-09-08 16:10PSTYes???USGS-5415.47 Unspecified NONE
12022006-09-08 16:07PSTYes???USGS-5665.44 Unspecified NONE
12012006-09-08 16:03PSTYes???USGS-7525.42 Unspecified NONE
12002006-09-08 15:58PSTYes???USGS-8795.38 Unspecified NONE
11992006-09-08 15:54PSTYes???USGS-9825.35 Unspecified NONE
11982006-09-08 15:49PSTYes???USGS-11005.33 Unspecified NONE
11972006-09-08 15:25PSTYes???USGS-18405.11 Unspecified NONE
11962006-09-08 15:21PSTYes???USGS-18605.07 Unspecified NONE
11952006-09-08 15:17PSTYes???USGS-18905.02 Unspecified NONE
11942006-09-08 15:12PSTYes???USGS-19504.97 Unspecified NONE
11932006-09-08 15:08PSTYes???USGS-20704.92 Unspecified NONE
11922006-09-08 15:05PSTYes???USGS-21604.88 Unspecified NONE
11912006-09-08 15:00PSTYes???USGS-20904.80 Unspecified NONE
11902006-09-08 14:56PSTYes???USGS-20904.74 Unspecified NONE
11892006-09-08 14:51PSTYes???USGS-20204.67 Unspecified NONE
11882006-09-08 14:47PSTYes???USGS-19104.60 Unspecified NONE
11872006-09-08 14:43PSTYes???USGS-18704.54 Unspecified NONE
11862006-09-08 14:39PSTYes???USGS-17404.47 Unspecified NONE
11852006-09-08 14:35PSTYes???USGS-16004.38 Unspecified NONE
11842006-09-08 14:30PSTYes???USGS-13304.27 Unspecified NONE
11832006-09-08 14:24PSTYes???USGS-9574.14 Unspecified NONE
11822006-09-08 14:21PSTYes???USGS-8834.08 Unspecified NONE
11812006-09-08 14:17PSTYes???USGS-4923.98 Unspecified NONE
11802006-09-08 14:13PSTYes???USGS-3223.90 Unspecified NONE
11792006-09-08 14:09PSTYes???USGS57.03.82 Unspecified NONE
11782006-09-08 14:05PSTYes???USGS3253.71 Unspecified NONE
11772006-09-08 14:01PSTYes???USGS6333.63 Unspecified NONE
11762006-09-08 13:56PSTYes???USGS10103.54 Unspecified NONE
11752006-09-08 13:52PSTYes???USGS13503.46 Unspecified NONE
11742006-09-08 13:49PSTYes???USGS15203.40 Unspecified NONE
11732006-09-08 13:41PSTYes???USGS19803.29 Unspecified NONE
11722006-09-08 13:37PSTYes???USGS22003.23 Unspecified NONE
11712006-09-08 13:33PSTYes???USGS24903.19 Unspecified NONE
11702006-09-08 13:29PSTYes???USGS25103.14 Unspecified NONE
11692006-09-08 13:25PSTYes???USGS27103.11 Unspecified NONE
11682006-09-08 13:21PSTYes???USGS28303.09 Unspecified NONE
11672006-09-08 13:17PSTYes???USGS28503.07 Unspecified NONE
11662006-09-08 13:13PSTYes???USGS31303.06 Unspecified NONE
11652006-09-08 13:08PSTYes???USGS31803.05 Unspecified NONE
11642006-09-08 13:04PSTYes???USGS33003.04 Unspecified NONE
11632006-09-08 12:59PSTYes???USGS32103.04 Unspecified NONE
11622006-09-08 12:55PSTYes???USGS34203.04 Unspecified NONE
11612006-09-08 12:50PSTYes???USGS33403.05 Unspecified NONE
11602006-09-08 12:47PSTYes???USGS34803.06 Unspecified NONE
11592006-09-08 12:41PSTYes???USGS34303.07 Unspecified NONE
11582006-09-08 12:38PSTYes???USGS36703.09 Unspecified NONE
11572006-09-08 12:35PSTYes???USGS36003.10 Unspecified NONE
11562006-09-08 12:31PSTYes???USGS37403.12 Unspecified NONE
11552006-09-08 12:27PSTYes???USGS37203.13 Unspecified NONE
11542006-09-08 12:23PSTYes???USGS38003.15 Unspecified NONE
11532006-09-08 12:18PSTYes???USGS38803.18 Unspecified NONE
11522006-09-08 12:14PSTYes???USGS38703.20 Unspecified NONE
11512006-09-08 11:48PSTYes???USGS39903.38 Unspecified NONE
11502006-09-08 11:41PSTYes???USGS38803.43 Unspecified NONE
11492006-09-08 11:36PSTYes???USGS39703.46 Unspecified NONE
11482006-09-08 11:31PSTYes???USGS39103.50 Unspecified NONE
11472006-09-08 11:27PSTYes???USGS39703.53 Unspecified NONE
11462006-09-08 11:22PSTYes???USGS39603.58 Unspecified NONE
11452006-09-08 11:14PSTYes???USGS40203.64 Unspecified NONE
11442006-09-08 11:09PSTYes???USGS38703.67 Unspecified NONE
11432006-09-08 11:05PSTYes???USGS40203.71 Unspecified NONE
11422006-09-08 11:00PSTYes???USGS38003.75 Unspecified NONE
11412006-09-08 10:56PSTYes???USGS37403.78 Unspecified NONE
11402006-09-08 10:52PSTYes???USGS38503.81 Unspecified NONE
11392006-09-08 10:12PSTYes???USGS36504.15 Unspecified NONE
11382006-09-08 10:07PSTYes???USGS36804.19 Unspecified NONE
11372006-09-08 10:03PSTYes???USGS37204.23 Unspecified NONE
11362006-09-08 09:59PSTYes???USGS35804.26 Unspecified NONE
11352006-09-08 09:54PSTYes???USGS35804.28 Unspecified NONE
11342006-09-08 09:48PSTYes???USGS37004.33 Unspecified NONE
11332006-09-08 09:44PSTYes???USGS36304.37 Unspecified NONE
11322006-09-08 09:40PSTYes???USGS36604.38 Unspecified NONE
11312006-09-08 09:36PSTYes???USGS37104.42 Unspecified NONE
11302006-09-08 09:20PSTYes???USGS35704.54 Unspecified NONE
11292006-09-08 09:14PSTYes???USGS38004.56 Unspecified NONE
11282006-09-08 09:09PSTYes???USGS36504.60 Unspecified NONE
11272006-09-08 09:05PSTYes???USGS38204.61 Unspecified NONE
11262006-09-08 09:01PSTYes???USGS37804.66 Unspecified NONE
11252006-09-08 08:54PSTYes???USGS38604.71 Unspecified NONE
11242006-09-08 08:49PSTYes???USGS39404.75 Unspecified NONE
11232006-09-08 08:43PSTYes???USGS41404.80 Unspecified NONE
11222006-09-08 08:38PSTYes???USGS40504.82 Unspecified NONE
11212006-09-08 08:33PSTYes???USGS42804.84 Unspecified NONE
11202006-09-08 08:28PSTYes???USGS42104.87 Unspecified NONE
11192006-09-08 08:23PSTYes???USGS41104.96 Unspecified NONE
11182006-09-08 08:18PSTYes???USGS39404.99 Unspecified NONE
11172006-09-08 08:13PSTYes???USGS41905.05 Unspecified NONE
11162006-09-08 08:08PSTYes???USGS40105.11 Unspecified NONE
11152006-09-08 08:03PSTYes???USGS42405.17 Unspecified NONE
11142006-09-08 07:59PSTYes???USGS39805.22 Unspecified NONE
11132006-09-08 07:54PSTYes???USGS39805.26 Unspecified NONE
11122006-09-08 07:50PSTYes???USGS38805.30 Unspecified NONE
11112006-09-08 07:45PSTYes???USGS35805.37 Unspecified NONE
11102006-09-08 07:41PSTYes???USGS37305.42 Unspecified NONE
11092006-09-08 07:35PSTYes???USGS36005.49 Unspecified NONE
11082006-04-11 10:59PSTYes???USGS1480014.82 Unspecified NONE
11072006-04-11 10:55PSTYes???USGS1420014.83 Unspecified NONE
11062006-04-11 10:52PSTYes???USGS1430014.83 Unspecified NONE
11052006-04-11 10:48PSTYes???USGS1420014.84 Unspecified NONE
11042006-04-11 10:44PSTYes???USGS1440014.84 Unspecified NONE
11032006-04-11 10:41PSTYes???USGS1470014.85 Unspecified NONE
11022006-04-11 10:38PSTYes???USGS1420014.87 Unspecified NONE
11012006-04-11 10:34PSTYes???USGS1460014.88 Unspecified NONE
11002006-04-11 10:30PSTYes???USGS1450014.90 Unspecified NONE
10992006-01-10 11:11PSTYes???USGS800014.40 Unspecified NONE
10982006-01-10 11:04PSTYes???USGS772014.33 Unspecified NONE
10972006-01-10 10:59PSTYes???USGS816014.27 Unspecified NONE
10962006-01-10 10:54PSTYes???USGS809014.22 Unspecified NONE
10952006-01-10 10:48PSTYes???USGS846014.16 Unspecified NONE
10942006-01-10 10:28PSTYes???USGS870013.91 Unspecified NONE
10932006-01-10 10:23PSTYes???USGS885013.85 Unspecified NONE
10922006-01-10 10:18PSTYes???USGS865013.81 Unspecified NONE
10912006-01-10 10:13PSTYes???USGS904013.76 Unspecified NONE
10902006-01-10 10:07PSTYes???USGS888013.71 Unspecified NONE
10892006-01-10 09:44PSTYes???USGS956013.54 Unspecified NONE
10882006-01-10 09:39PSTYes???USGS945013.52 Unspecified NONE
10872006-01-10 09:34PSTYes???USGS946013.50 Unspecified NONE
10862006-01-10 09:29PSTYes???USGS922013.48 Unspecified NONE
10852006-01-10 09:24PSTYes???USGS974013.48 Unspecified NONE
10842006-01-10 09:18PSTYes???USGS985013.46 Unspecified NONE
10832006-01-10 09:02PSTYes???USGS970013.45 Unspecified NONE
10822006-01-10 08:58PSTYes???USGS944013.45 Unspecified NONE
10812006-01-10 08:53PSTYes???USGS996013.44 Unspecified NONE
10802006-01-10 08:48PSTYes???USGS971013.43 Unspecified NONE
10792006-01-10 08:43PSTYes???USGS978013.43 Unspecified NONE
10782006-01-10 08:29PSTYes???USGS968013.43 Unspecified NONE
10772006-01-10 08:23PSTYes???USGS951013.44 Unspecified NONE
10762006-01-10 08:07PSTYes???USGS1000013.47 Unspecified NONE
10752004-12-20 16:30PSTYes???USGS297011.68 Unspecified NONE
10742004-12-20 16:27PSTYes???USGS306011.71 Unspecified NONE
10732004-12-20 16:23PSTYes???USGS315011.74 Unspecified NONE
10722004-12-20 16:18PSTYes???USGS304011.78 Unspecified NONE
10712004-12-20 16:13PSTYes???USGS293011.83 Unspecified NONE
10702004-12-20 16:09PSTYes???USGS289011.87 Unspecified NONE
10692004-12-20 16:05PSTYes???USGS290011.91 Unspecified NONE
10682004-12-20 15:47PSTYes???USGS258012.13 Unspecified NONE
10672004-12-20 15:42PSTYes???USGS233012.20 Unspecified NONE
10662004-12-20 15:36PSTYes???USGS224012.27 Unspecified NONE
10652004-12-20 15:31PSTYes???USGS201012.35 Unspecified NONE
10642004-12-20 15:26PSTYes???USGS185012.42 Unspecified NONE
10632004-12-20 15:21PSTYes???USGS162012.48 Unspecified NONE
10622004-12-20 15:17PSTYes???USGS141012.55 Unspecified NONE
10612004-12-20 15:12PSTYes???USGS117012.62 Unspecified NONE
10602004-12-20 15:07PSTYes???USGS79912.69 Unspecified NONE
10592004-12-20 15:02PSTYes???USGS42112.76 Unspecified NONE
10582004-12-20 14:57PSTYes???USGS18412.83 Unspecified NONE
10572004-12-20 14:52PSTYes???USGS-41.012.88 Unspecified NONE
10562004-12-20 14:48PSTYes???USGS-36512.93 Unspecified NONE
10552004-12-20 14:43PSTYes???USGS-60512.98 Unspecified NONE
10542004-12-20 14:39PSTYes???USGS-81713.02 Unspecified NONE
10532004-12-20 14:34PSTYes???USGS-105013.05 Unspecified NONE
10522004-12-20 14:29PSTYes???USGS-117013.07 Unspecified NONE
10512004-12-20 14:24PSTYes???USGS-145013.10 Unspecified NONE
10502004-12-20 14:19PSTYes???USGS-160013.12 Unspecified NONE
10492004-12-20 14:15PSTYes???USGS-174013.14 Unspecified NONE
10482004-12-20 14:11PSTYes???USGS-182013.15 Unspecified NONE
10472004-12-20 14:06PSTYes???USGS-194013.16 Unspecified NONE
10462004-12-20 14:02PSTYes???USGS-208013.17 Unspecified NONE
10452004-12-20 13:56PSTYes???USGS-224013.17 Unspecified NONE
10442004-12-20 13:51PSTYes???USGS-236013.17 Unspecified NONE
10432004-12-20 13:46PSTYes???USGS-249013.16 Unspecified NONE
10422004-12-20 13:41PSTYes???USGS-246013.16 Unspecified NONE
10412004-12-20 13:36PSTYes???USGS-267013.15 Unspecified NONE
10402004-12-20 13:31PSTYes???USGS-272013.14 Unspecified NONE
10392004-12-20 13:26PSTYes???USGS-274013.12 Unspecified NONE
10382004-12-20 13:08PSTYes???USGS-304013.05 Unspecified NONE
10372004-12-20 13:02PSTYes???USGS-311013.02 Unspecified NONE
10362004-12-20 12:57PSTYes???USGS-311013.00 Unspecified NONE
10352004-12-20 12:50PSTYes???USGS-314012.95 Unspecified NONE
10342004-12-20 12:43PSTYes???USGS-307012.92 Unspecified NONE
10332004-12-20 12:38PSTYes???USGS-317012.88 Unspecified NONE
10322004-12-20 12:33PSTYes???USGS-315012.85 Unspecified NONE
10312004-12-20 12:28PSTYes???USGS-324012.82 Unspecified NONE
10302004-12-20 12:19PSTYes???USGS-309012.76 Unspecified NONE
10292004-12-20 12:14PSTYes???USGS-314012.72 Unspecified NONE
10282004-12-20 12:08PSTYes???USGS-319012.68 Unspecified NONE
10272004-12-20 12:03PSTYes???USGS-322012.64 Unspecified NONE
10262004-12-20 11:57PSTYes???USGS-326012.60 Unspecified NONE
10252004-12-20 11:52PSTYes???USGS-322012.55 Unspecified NONE
10242004-12-20 11:47PSTYes???USGS-324012.51 Unspecified NONE
10232003-11-20 15:59PSTYes???USGS-132013.04 Unspecified NONE
10222003-11-20 15:55PSTYes???USGS-148013.06 Unspecified NONE
10212003-11-20 15:51PSTYes???USGS-157013.08 Unspecified NONE
10202003-11-20 15:47PSTYes???USGS-174013.10 Unspecified NONE
10192003-11-20 15:42PSTYes???USGS-187013.12 Unspecified NONE
10182003-11-20 15:38PSTYes???USGS-204013.13 Unspecified NONE
10172003-11-20 15:33PSTYes???USGS-212013.14 Unspecified NONE
10162003-11-20 15:29PSTYes???USGS-230013.15 Unspecified NONE
10152003-11-20 15:07PSTYes???USGS-268013.13 Unspecified NONE
10142003-11-20 15:02PSTYes???USGS-268013.12 Unspecified NONE
10132003-11-20 14:57PSTYes???USGS-284013.11 Unspecified NONE
10122003-11-20 14:52PSTYes???USGS-287013.10 Unspecified NONE
10112003-11-20 14:46PSTYes???USGS-300013.07 Unspecified NONE
10102003-11-20 14:41PSTYes???USGS-297013.05 Unspecified NONE
10092003-11-20 14:35PSTYes???USGS-300013.03 Unspecified NONE
10082003-11-20 14:30PSTYes???USGS-313013.01 Unspecified NONE
10072003-11-20 14:24PSTYes???USGS-316012.99 Unspecified NONE
10062003-11-20 14:19PSTYes???USGS-312012.95 Unspecified NONE
10052003-11-20 14:14PSTYes???USGS-315012.92 Unspecified NONE
10042003-11-20 14:08PSTYes???USGS-318012.89 Unspecified NONE
10032003-11-20 14:02PSTYes???USGS-328012.85 Unspecified NONE
10022003-11-20 13:57PSTYes???USGS-318012.82 Unspecified NONE
10012003-11-20 13:53PSTYes???USGS-322012.79 Unspecified NONE
10002003-11-20 13:47PSTYes???USGS-340012.75 Unspecified NONE
9992003-11-20 13:42PSTYes???USGS-338012.71 Unspecified NONE
9982003-11-20 13:37PSTYes???USGS-316012.68 Unspecified NONE
9972003-11-20 13:33PSTYes???USGS-336012.64 Unspecified NONE
9962003-11-20 13:27PSTYes???USGS-328012.60 Unspecified NONE
9952003-11-20 13:22PSTYes???USGS-333012.56 Unspecified NONE
9942003-11-20 13:17PSTYes???USGS-325012.52 Unspecified NONE
9932003-11-20 13:12PSTYes???USGS-319012.47 Unspecified NONE
9922003-11-20 13:07PSTYes???USGS-308012.42 Unspecified NONE
9912003-11-20 13:03PSTYes???USGS-316012.38 Unspecified NONE
9902003-11-20 12:58PSTYes???USGS-293012.34 Unspecified NONE
9892003-11-20 12:53PSTYes???USGS-305012.30 Unspecified NONE
9882003-11-20 12:49PSTYes???USGS-294012.26 Unspecified NONE
9872003-11-20 12:25PSTYes???USGS-270012.07 Unspecified NONE
9862003-11-20 12:18PSTYes???USGS-262012.01 Unspecified NONE
9852003-11-20 12:12PSTYes???USGS-274011.98 Unspecified NONE
9842003-11-20 12:06PSTYes???USGS-270011.93 Unspecified NONE
9832003-11-20 12:00PSTYes???USGS-268011.89 Unspecified NONE
9822003-11-20 11:54PSTYes???USGS-264011.86 Unspecified NONE
9812003-11-20 11:48PSTYes???USGS-271011.83 Unspecified NONE
9802003-11-20 11:43PSTYes???USGS-270011.79 Unspecified NONE
9792003-11-20 11:38PSTYes???USGS-288011.75 Unspecified NONE
9782003-11-20 11:32PSTYes???USGS-276011.71 Unspecified NONE
9772003-11-20 11:26PSTYes???USGS-290011.67 Unspecified NONE
9762003-11-20 11:20PSTYes???USGS-290011.62 Unspecified NONE
9752003-11-20 11:12PSTYes???USGS-300011.54 Unspecified NONE
9742003-11-20 11:02PSTYes???USGS-298011.43 Unspecified NONE
9732003-11-20 10:55PSTYes???USGS-297011.35 Unspecified NONE
9722003-11-20 10:35PSTYes???USGS-263011.06 Unspecified NONE
9712003-11-20 10:29PSTYes???USGS-250010.96 Unspecified NONE
9702003-11-20 10:24PSTYes???USGS-228010.86 Unspecified NONE
9692003-11-20 10:19PSTYes???USGS-208010.78 Unspecified NONE
9682003-11-20 10:14PSTYes???USGS-179010.69 Unspecified NONE
9672003-11-20 10:08PSTYes???USGS-153010.59 Unspecified NONE
9662003-11-20 10:03PSTYes???USGS-124010.48 Unspecified NONE
9652003-11-20 09:59PSTYes???USGS-87810.39 Unspecified NONE
9642003-11-20 09:54PSTYes???USGS-61410.32 Unspecified NONE
9632003-11-20 09:50PSTYes???USGS-32810.23 Unspecified NONE
9622003-11-20 09:45PSTYes???USGS-41.010.14 Unspecified NONE
9612003-11-20 09:40PSTYes???USGS38010.06 Unspecified NONE
9602003-11-20 09:35PSTYes???USGS6549.99 Unspecified NONE
9592003-11-20 09:29PSTYes???USGS9859.91 Unspecified NONE
9582003-11-20 09:24PSTYes???USGS13209.86 Unspecified NONE
9572003-11-20 09:18PSTYes???USGS14709.82 Unspecified NONE
9562003-11-20 09:13PSTYes???USGS18109.79 Unspecified NONE
9552003-11-20 09:07PSTYes???USGS17109.77 Unspecified NONE
9542003-11-20 09:01PSTYes???USGS20509.75 Unspecified NONE
9532003-11-20 08:56PSTYes???USGS20209.75 Unspecified NONE
9522003-11-20 08:51PSTYes???USGS21809.76 Unspecified NONE
9512003-11-20 08:46PSTYes???USGS22609.77 Unspecified NONE
9502003-11-20 08:40PSTYes???USGS23509.78 Unspecified NONE
9492003-11-20 08:34PSTYes???USGS23409.80 Unspecified NONE
9482003-11-20 08:27PSTYes???USGS24709.83 Unspecified NONE
9472003-11-20 08:21PSTYes???USGS25809.86 Unspecified NONE
9462002-07-25 18:59PSTYes???USGS-194012.70 Unspecified NONE
9452002-07-25 18:55PSTYes???USGS-196012.67 Unspecified NONE
9442002-07-25 18:50PSTYes???USGS-180012.64 Unspecified NONE
9432002-07-25 18:46PSTYes???USGS-169012.62 Unspecified NONE
9422002-07-25 18:41PSTYes???USGS-167012.59 Unspecified NONE
9412002-07-25 16:46PSTYes???USGS-182011.93 Unspecified NONE
9402002-07-25 16:42PSTYes???USGS-188011.89 Unspecified NONE
9392002-07-25 16:37PSTYes???USGS-207011.84 Unspecified NONE
9382002-07-25 16:32PSTYes???USGS-206011.78 Unspecified NONE
9372002-07-25 16:27PSTYes???USGS-210011.72 Unspecified NONE
9362002-07-25 16:22PSTYes???USGS-211011.66 Unspecified NONE
9352002-07-25 16:04PSTYes???USGS-193011.38 Unspecified NONE
9342002-07-25 15:59PSTYes???USGS-179011.30 Unspecified NONE
9332002-07-25 15:55PSTYes???USGS-163011.22 Unspecified NONE
9322002-07-25 15:48PSTYes???USGS-121011.07 Unspecified NONE
9312002-07-25 15:44PSTYes???USGS-111010.99 Unspecified NONE
9302002-07-25 15:36PSTYes???USGS-59210.83 Unspecified NONE
9292002-07-25 15:33PSTYes???USGS-39910.76 Unspecified NONE
9282002-07-25 15:29PSTYes???USGS-10210.69 Unspecified NONE
9272002-07-25 15:26PSTYes???USGS82.010.61 Unspecified NONE
9262002-07-25 15:22PSTYes???USGS35510.54 Unspecified NONE
9252002-07-25 15:19PSTYes???USGS55910.48 Unspecified NONE
9242002-07-25 15:15PSTYes???USGS83210.42 Unspecified NONE
9232002-07-25 15:11PSTYes???USGS115010.35 Unspecified NONE
9222002-07-25 15:08PSTYes???USGS134010.30 Unspecified NONE
9212002-07-25 15:04PSTYes???USGS150010.24 Unspecified NONE
9202002-07-25 15:00PSTYes???USGS164010.19 Unspecified NONE
9192002-07-25 14:56PSTYes???USGS196010.15 Unspecified NONE
9182002-07-25 14:52PSTYes???USGS212010.11 Unspecified NONE
9172002-07-25 14:49PSTYes???USGS227010.08 Unspecified NONE
9162002-07-25 14:45PSTYes???USGS238010.06 Unspecified NONE
9152002-07-25 14:41PSTYes???USGS254010.04 Unspecified NONE
9142002-07-25 14:37PSTYes???USGS251010.02 Unspecified NONE
9132002-07-25 14:33PSTYes???USGS260010.02 Unspecified NONE
9122002-07-25 14:28PSTYes???USGS271010.01 Unspecified NONE
9112002-07-25 14:24PSTYes???USGS280010.01 Unspecified NONE
9102002-07-25 14:20PSTYes???USGS287010.01 Unspecified NONE
9092002-07-25 14:14PSTYes???USGS292010.01 Unspecified NONE
9082002-07-25 14:09PSTYes???USGS308010.02 Unspecified NONE
9072002-07-25 14:04PSTYes???USGS312010.04 Unspecified NONE
9062002-07-25 13:59PSTYes???USGS327010.07 Unspecified NONE
9052002-07-25 13:53PSTYes???USGS320010.09 Unspecified NONE
9042002-07-25 13:49PSTYes???USGS329010.10 Unspecified NONE
9032002-07-25 13:44PSTYes???USGS327010.12 Unspecified NONE
9022002-07-25 13:40PSTYes???USGS338010.15 Unspecified NONE
9012002-07-25 12:56PSTYes???USGS345010.44 Unspecified NONE
9002002-07-25 12:45PSTYes???USGS343010.52 Unspecified NONE
8992002-07-25 12:39PSTYes???USGS345010.57 Unspecified NONE
8982002-07-25 12:35PSTYes???USGS340010.60 Unspecified NONE
8972002-07-25 12:31PSTYes???USGS354010.63 Unspecified NONE
8962002-07-25 12:27PSTYes???USGS334010.66 Unspecified NONE
8952002-07-25 12:20PSTYes???USGS338010.72 Unspecified NONE
8942002-07-25 12:16PSTYes???USGS346010.75 Unspecified NONE
8932002-07-25 12:11PSTYes???USGS348010.79 Unspecified NONE
8922002-07-25 11:17PSTYes???USGS343011.25 Unspecified NONE
8912002-07-25 11:13PSTYes???USGS357011.29 Unspecified NONE
8902002-07-25 11:08PSTYes???USGS337011.34 Unspecified NONE
8892002-07-25 11:04PSTYes???USGS336011.37 Unspecified NONE
8882002-07-25 10:59PSTYes???USGS340011.41 Unspecified NONE
8872002-07-25 10:55PSTYes???USGS348011.45 Unspecified NONE
8862002-07-25 10:51PSTYes???USGS342011.49 Unspecified NONE
8852002-07-25 09:46PSTYes???USGS267012.04 Unspecified NONE
8842002-07-25 09:42PSTYes???USGS286012.07 Unspecified NONE
8832002-07-25 09:38PSTYes???USGS277012.10 Unspecified NONE
8822002-07-25 09:34PSTYes???USGS273012.13 Unspecified NONE
8812002-07-25 08:56PSTYes???USGS248012.33 Unspecified NONE
8802002-07-25 08:51PSTYes???USGS235012.35 Unspecified NONE
8792002-07-25 08:47PSTYes???USGS243012.37 Unspecified NONE
8782002-07-25 08:43PSTYes???USGS241012.39 Unspecified NONE
8772002-07-25 08:38PSTYes???USGS241012.42 Unspecified NONE
8762002-07-25 08:34PSTYes???USGS248012.45 Unspecified NONE
8752002-07-25 08:29PSTYes???USGS245012.47 Unspecified NONE
8742002-07-25 08:25PSTYes???USGS248012.50 Unspecified NONE
8732002-07-25 08:21PSTYes???USGS243012.53 Unspecified NONE
8722002-07-25 08:16PSTYes???USGS244012.58 Unspecified NONE
8712002-07-25 07:49PSTYes???USGS225012.88 Unspecified NONE
8702002-07-25 07:44PSTYes???USGS216012.94 Unspecified NONE
8692002-07-25 07:40PSTYes???USGS204013.00 Unspecified NONE
8682002-07-25 07:35PSTYes???USGS196013.05 Unspecified NONE
8672002-07-25 07:31PSTYes???USGS185013.13 Unspecified NONE
8662002-07-25 07:27PSTYes???USGS169013.19 Unspecified NONE
8652002-07-25 07:22PSTYes???USGS157013.25 Unspecified NONE
8642002-07-25 07:18PSTYes???USGS136013.31 Unspecified NONE
8632002-07-25 07:14PSTYes???USGS115013.37 Unspecified NONE
8622002-07-25 07:10PSTYes???USGS101013.43 Unspecified NONE
8612002-07-25 07:04PSTYes???USGS50513.54 Unspecified NONE
8602002-07-25 06:59PSTYes???USGS32313.60 Unspecified NONE
8592002-07-25 06:55PSTYes???USGS92.013.66 Unspecified NONE
8582002-07-25 06:51PSTYes???USGS-19613.71 Unspecified NONE
8572002-07-25 06:47PSTYes???USGS-36813.76 Unspecified NONE
8562002-07-25 06:43PSTYes???USGS-59513.80 Unspecified NONE
8552002-07-25 06:39PSTYes???USGS-79813.85 Unspecified NONE
8542002-07-25 06:35PSTYes???USGS-111013.89 Unspecified NONE
8532002-07-25 06:26PSTYes???USGS-144013.97 Unspecified NONE
8522002-07-25 06:21PSTYes???USGS-174014.00 Unspecified NONE
8512002-07-25 06:16PSTYes???USGS-198014.03 Unspecified NONE
8502002-07-25 06:11PSTYes???USGS-213014.05 Unspecified NONE
8492002-07-25 06:06PSTYes???USGS-222014.06 Unspecified NONE
8482002-07-25 06:01PSTYes???USGS-238014.07 Unspecified NONE
8472002-07-25 05:57PSTYes???USGS-246014.08 Unspecified NONE
8462002-07-25 05:51PSTYes???USGS-260014.09 Unspecified NONE
8452002-07-25 05:45PSTYes???USGS-281014.09 Unspecified NONE
8442002-07-25 05:33PSTYes???USGS-299014.08 Unspecified NONE
8432002-07-25 05:20PSTYes???USGS-310014.04 Unspecified NONE
8422002-07-25 05:14PSTYes???USGS-314014.02 Unspecified NONE
8412002-04-22 14:35PSTYes???USGS385012.50 Unspecified NONE
8402002-04-22 14:31PSTYes???USGS370012.54 Unspecified NONE
8392002-04-22 14:27PSTYes???USGS350012.59 Unspecified NONE
8382002-04-22 14:22PSTYes???USGS351012.63 Unspecified NONE
8372002-04-22 14:18PSTYes???USGS318012.67 Unspecified NONE
8362002-04-22 14:04PSTYes???USGS288012.78 Unspecified NONE
8352002-04-22 14:00PSTYes???USGS268012.81 Unspecified NONE
8342002-04-22 13:56PSTYes???USGS254012.83 Unspecified NONE
8332002-04-22 13:53PSTYes???USGS238012.85 Unspecified NONE
8322002-04-22 13:49PSTYes???USGS244012.86 Unspecified NONE
8312002-04-22 13:46PSTYes???USGS228012.88 Unspecified NONE
8302002-04-22 13:42PSTYes???USGS211012.89 Unspecified NONE
8292002-04-22 13:38PSTYes???USGS202012.90 Unspecified NONE
8282002-04-22 12:59PSTYes???USGS138012.89 Unspecified NONE
8272002-04-22 12:55PSTYes???USGS129012.88 Unspecified NONE
8262002-04-22 12:51PSTYes???USGS135012.87 Unspecified NONE
8252002-04-22 12:47PSTYes???USGS129012.86 Unspecified NONE
8242002-04-22 12:43PSTYes???USGS132012.84 Unspecified NONE
8232002-04-22 12:40PSTYes???USGS129012.83 Unspecified NONE
8222002-04-22 12:28PSTYes???USGS137012.78 Unspecified NONE
8212002-04-22 12:24PSTYes???USGS139012.77 Unspecified NONE
8202002-04-22 12:21PSTYes???USGS144012.76 Unspecified NONE
8192002-04-22 12:17PSTYes???USGS144012.75 Unspecified NONE
8182002-04-22 12:13PSTYes???USGS138012.73 Unspecified NONE
8172002-04-22 12:10PSTYes???USGS157012.71 Unspecified NONE
8162002-04-22 12:06PSTYes???USGS155012.70 Unspecified NONE
8152002-04-22 12:03PSTYes???USGS152012.68 Unspecified NONE
8142002-04-22 11:59PSTYes???USGS143012.66 Unspecified NONE
8132002-04-22 11:55PSTYes???USGS142012.64 Unspecified NONE
8122002-04-22 11:51PSTYes???USGS152012.63 Unspecified NONE
8112002-04-22 11:48PSTYes???USGS143012.61 Unspecified NONE
8102002-04-22 11:44PSTYes???USGS152012.60 Unspecified NONE
8092002-04-22 11:40PSTYes???USGS138012.58 Unspecified NONE
8082002-04-22 11:34PSTYes???USGS134012.56 Unspecified NONE
8072002-04-22 11:30PSTYes???USGS130012.54 Unspecified NONE
8062002-01-18 16:10PSTYes???USGS41710.98 Unspecified NONE
8052002-01-18 16:07PSTYes???USGS65410.95 Unspecified NONE
8042002-01-18 16:04PSTYes???USGS70910.92 Unspecified NONE
8032002-01-18 16:00PSTYes???USGS89310.90 Unspecified NONE
8022002-01-18 15:57PSTYes???USGS95010.88 Unspecified NONE
8012002-01-18 15:54PSTYes???USGS104010.86 Unspecified NONE
8002002-01-18 15:50PSTYes???USGS115010.84 Unspecified NONE
7992002-01-18 15:47PSTYes???USGS125010.83 Unspecified NONE
7982002-01-18 15:43PSTYes???USGS141010.82 Unspecified NONE
7972002-01-18 15:40PSTYes???USGS142010.81 Unspecified NONE
7962002-01-18 15:37PSTYes???USGS152010.80 Unspecified NONE
7952002-01-18 15:33PSTYes???USGS155010.80 Unspecified NONE
7942002-01-18 15:30PSTYes???USGS157010.80 Unspecified NONE
7932002-01-18 15:26PSTYes???USGS173010.80 Unspecified NONE
7922002-01-18 15:24PSTYes???USGS168010.80 Unspecified NONE
7912002-01-18 15:21PSTYes???USGS168010.80 Unspecified NONE
7902002-01-18 15:17PSTYes???USGS175010.80 Unspecified NONE
7892002-01-18 15:14PSTYes???USGS181010.80 Unspecified NONE
7882002-01-18 15:10PSTYes???USGS176010.81 Unspecified NONE
7872002-01-18 15:07PSTYes???USGS183010.82 Unspecified NONE
7862002-01-18 15:03PSTYes???USGS193010.82 Unspecified NONE
7852002-01-18 14:59PSTYes???USGS184010.83 Unspecified NONE
7842002-01-18 14:56PSTYes???USGS191010.84 Unspecified NONE
7832002-01-18 14:53PSTYes???USGS193010.85 Unspecified NONE
7822002-01-18 14:49PSTYes???USGS186010.86 Unspecified NONE
7812002-01-18 14:46PSTYes???USGS198010.87 Unspecified NONE
7802002-01-18 14:43PSTYes???USGS190010.88 Unspecified NONE
7792002-01-18 14:39PSTYes???USGS186010.89 Unspecified NONE
7782002-01-18 14:36PSTYes???USGS200010.90 Unspecified NONE
7772002-01-18 14:32PSTYes???USGS202010.91 Unspecified NONE
7762002-01-18 14:28PSTYes???USGS206010.93 Unspecified NONE
7752002-01-18 14:24PSTYes???USGS207010.94 Unspecified NONE
7742002-01-18 14:21PSTYes???USGS208010.96 Unspecified NONE
7732002-01-18 14:17PSTYes???USGS201010.97 Unspecified NONE
7722002-01-18 14:13PSTYes???USGS204010.98 Unspecified NONE
7712002-01-18 14:08PSTYes???USGS205011.00 Unspecified NONE
7702002-01-18 14:05PSTYes???USGS200011.01 Unspecified NONE
7692002-01-18 13:41PSTYes???USGS224011.10 Unspecified NONE
7682002-01-18 13:37PSTYes???USGS230011.11 Unspecified NONE
7672002-01-18 13:33PSTYes???USGS222011.13 Unspecified NONE
7662002-01-18 13:30PSTYes???USGS225011.15 Unspecified NONE
7652002-01-18 13:26PSTYes???USGS221011.16 Unspecified NONE
7642002-01-18 13:22PSTYes???USGS238011.17 Unspecified NONE
7632002-01-18 13:19PSTYes???USGS232011.19 Unspecified NONE
7622002-01-18 13:15PSTYes???USGS232011.20 Unspecified NONE
7612002-01-18 13:11PSTYes???USGS236011.22 Unspecified NONE
7602002-01-18 13:08PSTYes???USGS250011.24 Unspecified NONE
7592002-01-18 13:04PSTYes???USGS242011.26 Unspecified NONE
7582002-01-18 13:00PSTYes???USGS242011.29 Unspecified NONE
7572002-01-18 12:56PSTYes???USGS242011.31 Unspecified NONE
7562002-01-18 12:52PSTYes???USGS247011.34 Unspecified NONE
7552002-01-18 12:49PSTYes???USGS258011.36 Unspecified NONE
7542002-01-18 12:44PSTYes???USGS253011.39 Unspecified NONE
7532002-01-18 12:41PSTYes???USGS263011.42 Unspecified NONE
7522002-01-18 12:37PSTYes???USGS255011.45 Unspecified NONE
7512002-01-18 12:33PSTYes???USGS250011.47 Unspecified NONE
7502002-01-18 12:30PSTYes???USGS244011.50 Unspecified NONE
7492002-01-18 12:26PSTYes???USGS239011.54 Unspecified NONE
7482002-01-18 12:23PSTYes???USGS234011.57 Unspecified NONE
7472002-01-18 12:20PSTYes???USGS234011.60 Unspecified NONE
7462002-01-18 12:16PSTYes???USGS236011.64 Unspecified NONE
7452002-01-18 12:12PSTYes???USGS218011.68 Unspecified NONE
7442002-01-18 12:09PSTYes???USGS214011.72 Unspecified NONE
7432002-01-18 12:05PSTYes???USGS206011.76 Unspecified NONE
7422002-01-18 12:01PSTYes???USGS197011.80 Unspecified NONE
7412002-01-18 11:58PSTYes???USGS195011.84 Unspecified NONE
7402002-01-18 11:54PSTYes???USGS183011.88 Unspecified NONE
7392002-01-18 11:51PSTYes???USGS175011.92 Unspecified NONE
7382002-01-18 11:48PSTYes???USGS170011.96 Unspecified NONE
7372002-01-18 11:45PSTYes???USGS157011.99 Unspecified NONE
7362002-01-14 16:08PSTYes???USGS-303013.37 Unspecified NONE
7352002-01-14 16:02PSTYes???USGS-302013.33 Unspecified NONE
7342002-01-14 15:55PSTYes???USGS-302013.28 Unspecified NONE
7332002-01-14 15:49PSTYes???USGS-286013.24 Unspecified NONE
7322002-01-14 15:42PSTYes???USGS-302013.19 Unspecified NONE
7312002-01-14 15:36PSTYes???USGS-302013.14 Unspecified NONE
7302002-01-14 15:30PSTYes???USGS-302013.11 Unspecified NONE
7292002-01-14 15:25PSTYes???USGS-306013.07 Unspecified NONE
7282002-01-14 15:20PSTYes???USGS-300013.04 Unspecified NONE
7272002-01-14 15:15PSTYes???USGS-307013.01 Unspecified NONE
7262002-01-14 15:11PSTYes???USGS-301012.97 Unspecified NONE
7252002-01-14 15:06PSTYes???USGS-304012.94 Unspecified NONE
7242002-01-14 15:01PSTYes???USGS-308012.90 Unspecified NONE
7232002-01-14 14:56PSTYes???USGS-308012.86 Unspecified NONE
7222002-01-14 14:44PSTYes???USGS-307012.75 Unspecified NONE
7212002-01-14 14:39PSTYes???USGS-312012.70 Unspecified NONE
7202002-01-14 14:34PSTYes???USGS-307012.65 Unspecified NONE
7192002-01-14 14:30PSTYes???USGS-306012.61 Unspecified NONE
7182002-01-14 14:25PSTYes???USGS-311012.55 Unspecified NONE
7172002-01-14 14:19PSTYes???USGS-305012.49 Unspecified NONE
7162002-01-14 14:14PSTYes???USGS-298012.43 Unspecified NONE
7152002-01-14 14:10PSTYes???USGS-295012.37 Unspecified NONE
7142002-01-14 14:05PSTYes???USGS-280012.30 Unspecified NONE
7132002-01-14 13:59PSTYes???USGS-258012.22 Unspecified NONE
7122002-01-14 13:53PSTYes???USGS-245012.14 Unspecified NONE
7112002-01-14 13:48PSTYes???USGS-226012.06 Unspecified NONE
7102002-01-14 13:43PSTYes???USGS-206012.00 Unspecified NONE
7092002-01-14 13:39PSTYes???USGS-194011.94 Unspecified NONE
7082002-01-14 13:35PSTYes???USGS-155011.87 Unspecified NONE
7072002-01-14 13:31PSTYes???USGS-136011.80 Unspecified NONE
7062002-01-14 13:27PSTYes???USGS-120011.74 Unspecified NONE
7052002-01-14 13:23PSTYes???USGS-100011.68 Unspecified NONE
7042002-01-14 13:19PSTYes???USGS-61811.62 Unspecified NONE
7032002-01-14 13:15PSTYes???USGS-45711.57 Unspecified NONE
7022002-01-14 13:12PSTYes???USGS-33611.53 Unspecified NONE
7012002-01-14 13:08PSTYes???USGS-77.011.48 Unspecified NONE
7002002-01-14 13:05PSTYes???USGS14911.44 Unspecified NONE
6992002-01-14 13:01PSTYes???USGS25111.39 Unspecified NONE
6982002-01-14 12:57PSTYes???USGS58111.35 Unspecified NONE
6972002-01-14 12:53PSTYes???USGS72911.32 Unspecified NONE
6962002-01-14 12:50PSTYes???USGS96211.29 Unspecified NONE
6952002-01-14 12:42PSTYes???USGS115011.23 Unspecified NONE
6942002-01-14 12:39PSTYes???USGS117011.21 Unspecified NONE
6932002-01-14 12:35PSTYes???USGS134011.20 Unspecified NONE
6922002-01-14 12:32PSTYes???USGS143011.19 Unspecified NONE
6912002-01-14 12:28PSTYes???USGS143011.18 Unspecified NONE
6902002-01-14 12:25PSTYes???USGS152011.17 Unspecified NONE
6892002-01-14 12:17PSTYes???USGS171011.16 Unspecified NONE
6882002-01-14 12:13PSTYes???USGS184011.16 Unspecified NONE
6872002-01-14 12:10PSTYes???USGS169011.16 Unspecified NONE
6862002-01-14 12:06PSTYes???USGS192011.16 Unspecified NONE
6852001-09-11 15:51PSTYes???USGS200012.01 Unspecified NONE
6842001-09-11 15:48PSTYes???USGS200012.03 Unspecified NONE
6832001-09-11 15:46PSTYes???USGS204012.05 Unspecified NONE
6822001-09-11 15:43PSTYes???USGS196012.07 Unspecified NONE
6812001-09-11 15:40PSTYes???USGS179012.09 Unspecified NONE
6802001-09-11 15:37PSTYes???USGS174012.12 Unspecified NONE
6792001-09-11 15:34PSTYes???USGS174012.14 Unspecified NONE
6782001-09-11 15:31PSTYes???USGS170012.15 Unspecified NONE
6772001-09-11 15:28PSTYes???USGS157012.17 Unspecified NONE
6762001-09-11 15:26PSTYes???USGS161012.18 Unspecified NONE
6752001-09-11 15:23PSTYes???USGS161012.21 Unspecified NONE
6742001-09-11 15:21PSTYes???USGS154012.24 Unspecified NONE
6732001-09-11 15:18PSTYes???USGS139012.26 Unspecified NONE
6722001-09-11 15:15PSTYes???USGS130012.27 Unspecified NONE
6712001-09-11 15:12PSTYes???USGS121012.30 Unspecified NONE
6702001-09-11 15:10PSTYes???USGS104012.32 Unspecified NONE
6692001-09-11 15:07PSTYes???USGS102012.33 Unspecified NONE
6682001-09-11 13:05PSTYes???USGS-26412.54 Unspecified NONE
6672001-09-11 13:02PSTYes???USGS-44912.49 Unspecified NONE
6662001-09-11 12:59PSTYes???USGS-27112.46 Unspecified NONE
6652001-09-11 12:57PSTYes???USGS-21112.47 Unspecified NONE
6642001-09-11 12:54PSTYes???USGS14012.47 Unspecified NONE
6632001-09-11 12:51PSTYes???USGS-14312.46 Unspecified NONE
6622001-09-11 12:46PSTYes???USGS-18412.43 Unspecified NONE
6612001-09-11 12:23PSTYes???USGS-56.012.38 Unspecified NONE
6602001-09-11 12:20PSTYes???USGS-24112.36 Unspecified NONE
6592001-09-11 12:17PSTYes???USGS-23912.34 Unspecified NONE
6582001-09-11 12:15PSTYes???USGS-12112.32 Unspecified NONE
6572001-09-11 12:12PSTYes???USGS61.012.30 Unspecified NONE
6562001-09-11 12:10PSTYes???USGS45.012.29 Unspecified NONE
6552001-09-11 12:07PSTYes???USGS-56.012.28 Unspecified NONE
6542001-09-11 12:05PSTYes???USGS11812.27 Unspecified NONE
6532001-09-11 12:02PSTYes???USGS13612.26 Unspecified NONE
6522001-09-11 11:59PSTYes???USGS24612.26 Unspecified NONE
6512001-09-11 11:57PSTYes???USGS26012.24 Unspecified NONE
6502001-09-11 11:54PSTYes???USGS42512.23 Unspecified NONE
6492001-09-11 11:52PSTYes???USGS25812.22 Unspecified NONE
6482001-09-11 11:49PSTYes???USGS52812.21 Unspecified NONE
6472001-09-11 11:47PSTYes???USGS39712.19 Unspecified NONE
6462001-09-11 11:44PSTYes???USGS61412.18 Unspecified NONE
6452001-09-11 11:42PSTYes???USGS48012.16 Unspecified NONE
6442001-09-11 11:39PSTYes???USGS64212.15 Unspecified NONE
6432001-09-11 11:37PSTYes???USGS70712.14 Unspecified NONE
6422001-09-11 11:35PSTYes???USGS76312.13 Unspecified NONE
6412001-09-11 11:32PSTYes???USGS68712.12 Unspecified NONE
6402001-09-11 11:29PSTYes???USGS73312.11 Unspecified NONE
6392001-09-10 23:43PSTYes???USGS-23813.74 Unspecified NONE
6382001-09-10 23:40PSTYes???USGS-36113.76 Unspecified NONE
6372001-09-10 23:37PSTYes???USGS-48413.79 Unspecified NONE
6362001-09-10 23:35PSTYes???USGS-63113.81 Unspecified NONE
6352001-09-10 23:32PSTYes???USGS-80013.83 Unspecified NONE
6342001-09-10 23:29PSTYes???USGS-79013.84 Unspecified NONE
6332001-09-10 23:26PSTYes???USGS-103013.85 Unspecified NONE
6322001-09-10 23:23PSTYes???USGS-128013.87 Unspecified NONE
6312001-09-10 23:21PSTYes???USGS-122013.89 Unspecified NONE
6302001-09-10 23:18PSTYes???USGS-139013.90 Unspecified NONE
6292001-09-10 23:13PSTYes???USGS-138013.93 Unspecified NONE
6282001-09-10 23:10PSTYes???USGS-160013.94 Unspecified NONE
6272001-09-10 23:07PSTYes???USGS-171013.95 Unspecified NONE
6262001-09-10 23:04PSTYes???USGS-175013.95 Unspecified NONE
6252001-09-10 23:01PSTYes???USGS-186013.96 Unspecified NONE
6242001-09-10 22:58PSTYes???USGS-204013.97 Unspecified NONE
6232001-09-10 22:56PSTYes???USGS-195013.97 Unspecified NONE
6222001-09-10 22:53PSTYes???USGS-209013.97 Unspecified NONE
6212001-09-10 22:50PSTYes???USGS-209013.97 Unspecified NONE
6202001-09-10 22:47PSTYes???USGS-218013.98 Unspecified NONE
6192001-09-10 22:44PSTYes???USGS-223013.98 Unspecified NONE
6182001-09-10 22:41PSTYes???USGS-232013.98 Unspecified NONE
6172001-09-10 22:38PSTYes???USGS-236013.98 Unspecified NONE
6162001-09-10 22:35PSTYes???USGS-251013.98 Unspecified NONE
6152001-09-10 22:31PSTYes???USGS-251013.97 Unspecified NONE
6142001-09-10 22:28PSTYes???USGS-256013.96 Unspecified NONE
6132001-09-10 22:25PSTYes???USGS-248013.95 Unspecified NONE
6122001-09-10 22:21PSTYes???USGS-251013.93 Unspecified NONE
6112001-09-10 22:17PSTYes???USGS-261013.92 Unspecified NONE
6102001-09-10 22:12PSTYes???USGS-274013.91 Unspecified NONE
6092001-09-10 22:08PSTYes???USGS-279013.90 Unspecified NONE
6082001-09-10 22:04PSTYes???USGS-281013.89 Unspecified NONE
6072001-09-10 22:01PSTYes???USGS-282013.87 Unspecified NONE
6062001-09-10 21:57PSTYes???USGS-286013.86 Unspecified NONE
6052001-09-10 21:54PSTYes???USGS-286013.85 Unspecified NONE
6042001-09-10 21:50PSTYes???USGS-283013.83 Unspecified NONE
6032001-09-10 21:46PSTYes???USGS-283013.81 Unspecified NONE
6022001-09-10 21:42PSTYes???USGS-289013.79 Unspecified NONE
6012001-09-10 21:31PSTYes???USGS-295013.74 Unspecified NONE
6002001-09-10 21:28PSTYes???USGS-306013.72 Unspecified NONE
5992001-09-10 21:24PSTYes???USGS-290013.69 Unspecified NONE
5982001-09-10 21:20PSTYes???USGS-300013.67 Unspecified NONE
5972001-09-10 21:16PSTYes???USGS-295013.64 Unspecified NONE
5962001-09-10 21:12PSTYes???USGS-284013.61 Unspecified NONE
5952001-09-10 21:08PSTYes???USGS-306013.59 Unspecified NONE
5942001-09-10 21:04PSTYes???USGS-299013.57 Unspecified NONE
5932001-09-10 21:01PSTYes???USGS-293013.54 Unspecified NONE
5922001-09-10 20:57PSTYes???USGS-288013.53 Unspecified NONE
5912001-09-10 20:52PSTYes???USGS-292013.50 Unspecified NONE
5902001-09-10 20:49PSTYes???USGS-295013.48 Unspecified NONE
5892001-09-10 20:46PSTYes???USGS-273013.45 Unspecified NONE
5882001-09-10 20:42PSTYes???USGS-257013.42 Unspecified NONE
5872001-09-10 20:38PSTYes???USGS-265013.40 Unspecified NONE
5862001-09-10 20:28PSTYes???USGS-256013.32 Unspecified NONE
5852001-09-10 20:24PSTYes???USGS-254013.30 Unspecified NONE
5842001-09-10 20:21PSTYes???USGS-250013.26 Unspecified NONE
5832001-09-10 20:17PSTYes???USGS-237013.24 Unspecified NONE
5822001-09-10 20:14PSTYes???USGS-222013.23 Unspecified NONE
5812001-09-10 20:11PSTYes???USGS-229013.21 Unspecified NONE
5802001-09-10 20:07PSTYes???USGS-246013.18 Unspecified NONE
5792001-09-10 20:04PSTYes???USGS-215013.15 Unspecified NONE
5782001-09-10 20:01PSTYes???USGS-222013.14 Unspecified NONE
5772001-09-10 19:57PSTYes???USGS-195013.12 Unspecified NONE
5762001-09-10 19:54PSTYes???USGS-198013.09 Unspecified NONE
5752001-09-10 19:51PSTYes???USGS-200013.07 Unspecified NONE
5742001-09-10 19:48PSTYes???USGS-191013.05 Unspecified NONE
5732001-09-10 19:45PSTYes???USGS-175013.02 Unspecified NONE
5722001-09-10 19:31PSTYes???USGS-172012.97 Unspecified NONE
5712001-09-10 19:27PSTYes???USGS-164012.91 Unspecified NONE
5702001-09-10 19:25PSTYes???USGS-171012.87 Unspecified NONE
5692001-09-10 19:21PSTYes???USGS-177012.90 Unspecified NONE
5682001-09-10 19:18PSTYes???USGS-184012.87 Unspecified NONE
5672001-09-10 19:14PSTYes???USGS-163012.80 Unspecified NONE
5662001-09-10 19:11PSTYes???USGS-175012.83 Unspecified NONE
5652001-09-10 19:08PSTYes???USGS-164012.82 Unspecified NONE
5642001-09-10 19:04PSTYes???USGS-192012.78 Unspecified NONE
5632001-09-10 19:01PSTYes???USGS-162012.72 Unspecified NONE
5622001-09-10 18:58PSTYes???USGS-170012.70 Unspecified NONE
5612001-09-10 18:55PSTYes???USGS-168012.69 Unspecified NONE
5602001-09-10 18:52PSTYes???USGS-179012.71 Unspecified NONE
5592001-09-10 18:49PSTYes???USGS-174012.68 Unspecified NONE
5582001-09-10 18:46PSTYes???USGS-162012.57 Unspecified NONE
5572001-09-10 18:43PSTYes???USGS-167012.60 Unspecified NONE
5562001-09-10 18:40PSTYes???USGS-156012.63 Unspecified NONE
5552001-09-10 18:28PSTYes???USGS-155012.48 Unspecified NONE
5542001-09-10 18:25PSTYes???USGS-160012.45 Unspecified NONE
5532001-09-10 18:21PSTYes???USGS-139012.41 Unspecified NONE
5522001-09-10 18:18PSTYes???USGS-131012.38 Unspecified NONE
5512001-09-10 18:15PSTYes???USGS-148012.35 Unspecified NONE
5502001-09-10 18:12PSTYes???USGS-144012.32 Unspecified NONE
5492001-09-10 18:09PSTYes???USGS-124012.29 Unspecified NONE
5482001-09-10 18:06PSTYes???USGS-120012.25 Unspecified NONE
5472001-09-10 18:03PSTYes???USGS-104012.22 Unspecified NONE
5462001-09-10 18:00PSTYes???USGS-110012.19 Unspecified NONE
5452001-09-10 17:57PSTYes???USGS-101012.15 Unspecified NONE
5442001-09-10 17:54PSTYes???USGS-94012.12 Unspecified NONE
5432001-09-10 17:51PSTYes???USGS-78012.08 Unspecified NONE
5422001-09-10 17:47PSTYes???USGS-65812.05 Unspecified NONE
5412001-09-10 17:45PSTYes???USGS-50512.03 Unspecified NONE
5402001-09-10 17:36PSTYes???USGS-46011.93 Unspecified NONE
5392001-09-10 17:34PSTYes???USGS-30911.90 Unspecified NONE
5382001-09-10 17:31PSTYes???USGS-11611.89 Unspecified NONE
5372001-09-10 17:28PSTYes???USGS-97.011.87 Unspecified NONE
5362001-09-10 17:26PSTYes???USGS87.011.83 Unspecified NONE
5352001-09-10 17:23PSTYes???USGS22311.79 Unspecified NONE
5342001-09-10 17:20PSTYes???USGS29411.76 Unspecified NONE
5332001-09-10 17:17PSTYes???USGS46811.74 Unspecified NONE
5322001-09-10 17:15PSTYes???USGS55811.72 Unspecified NONE
5312001-09-10 17:12PSTYes???USGS60411.69 Unspecified NONE
5302001-09-10 17:09PSTYes???USGS58711.67 Unspecified NONE
5292001-09-10 17:06PSTYes???USGS67711.66 Unspecified NONE
5282001-09-10 17:03PSTYes???USGS87211.64 Unspecified NONE
5272001-09-10 17:00PSTYes???USGS90711.61 Unspecified NONE
5262001-09-10 16:57PSTYes???USGS94211.60 Unspecified NONE
5252001-09-10 16:55PSTYes???USGS103011.59 Unspecified NONE
5242001-09-10 16:51PSTYes???USGS100011.56 Unspecified NONE
5232001-09-10 16:48PSTYes???USGS119011.54 Unspecified NONE
5222001-09-10 16:45PSTYes???USGS118011.53 Unspecified NONE
5212001-09-10 16:36PSTYes???USGS133011.50 Unspecified NONE
5202001-09-10 16:34PSTYes???USGS133011.49 Unspecified NONE
5192001-09-10 16:31PSTYes???USGS141011.48 Unspecified NONE
5182001-09-10 16:28PSTYes???USGS154011.48 Unspecified NONE
5172001-09-10 16:25PSTYes???USGS153011.47 Unspecified NONE
5162001-09-10 16:22PSTYes???USGS166011.47 Unspecified NONE
5152001-09-10 16:20PSTYes???USGS167011.47 Unspecified NONE
5142001-09-10 16:17PSTYes???USGS150011.45 Unspecified NONE
5132001-09-10 16:14PSTYes???USGS150011.44 Unspecified NONE
5122001-09-10 16:11PSTYes???USGS170011.44 Unspecified NONE
5112001-09-10 16:08PSTYes???USGS175011.44 Unspecified NONE
5102001-09-10 16:05PSTYes???USGS161011.44 Unspecified NONE
5092001-09-10 16:03PSTYes???USGS179011.44 Unspecified NONE
5082001-09-10 16:00PSTYes???USGS178011.43 Unspecified NONE
5072001-09-10 15:58PSTYes???USGS194011.43 Unspecified NONE
5062001-09-10 15:55PSTYes???USGS201011.42 Unspecified NONE
5052001-09-10 15:13PSTYes???USGS229011.46 Unspecified NONE
5042001-09-10 15:09PSTYes???USGS244011.47 Unspecified NONE
5032001-09-10 15:06PSTYes???USGS256011.48 Unspecified NONE
5022001-09-10 15:03PSTYes???USGS249011.49 Unspecified NONE
5012001-09-10 15:00PSTYes???USGS246011.50 Unspecified NONE
5002001-09-10 14:56PSTYes???USGS262011.51 Unspecified NONE
4992001-09-10 14:53PSTYes???USGS268011.52 Unspecified NONE
4982001-09-10 14:50PSTYes???USGS274011.54 Unspecified NONE
4972001-09-10 14:46PSTYes???USGS263011.55 Unspecified NONE
4962001-09-10 14:43PSTYes???USGS260011.57 Unspecified NONE
4952001-09-10 14:39PSTYes???USGS259011.58 Unspecified NONE
4942001-09-10 14:36PSTYes???USGS271011.61 Unspecified NONE
4932001-09-10 14:32PSTYes???USGS284011.63 Unspecified NONE
4922001-09-10 14:29PSTYes???USGS264011.65 Unspecified NONE
4912001-09-10 14:26PSTYes???USGS268011.67 Unspecified NONE
4902001-09-10 14:22PSTYes???USGS269011.69 Unspecified NONE
4892001-09-10 14:18PSTYes???USGS264011.72 Unspecified NONE
4882001-09-10 14:14PSTYes???USGS264011.75 Unspecified NONE
4872001-09-10 14:10PSTYes???USGS257011.78 Unspecified NONE
4862001-09-10 14:05PSTYes???USGS258011.82 Unspecified NONE
4852001-09-10 13:47PSTYes???USGS240011.95 Unspecified NONE
4842001-09-10 13:43PSTYes???USGS240011.98 Unspecified NONE
4832001-09-10 13:39PSTYes???USGS234010.21 Unspecified NONE
4822001-09-10 13:35PSTYes???USGS22100.69 Unspecified NONE
4812001-09-10 13:32PSTYes???USGS21307.48 Unspecified NONE
4802001-09-10 13:22PSTYes???USGS201011.81 Unspecified NONE
4792001-09-10 13:18PSTYes???USGS186011.84 Unspecified NONE
4782001-09-10 13:14PSTYes???USGS162011.86 Unspecified NONE
4772001-09-10 13:11PSTYes???USGS155011.89 Unspecified NONE
4762001-09-10 13:07PSTYes???USGS163011.91 Unspecified NONE
4752001-09-10 13:03PSTYes???USGS158011.93 Unspecified NONE
4742001-09-10 13:00PSTYes???USGS132011.96 Unspecified NONE
4731999-03-04 15:18PSTYes???USGS492011.73 Unspecified NONE
4721999-03-04 15:15PSTYes???USGS521011.70 Unspecified NONE
4711999-03-04 15:00PSTYes???USGS530011.59 Unspecified NONE
4701999-03-04 14:56PSTYes???USGS535011.57 Unspecified NONE
4691999-03-04 14:13PSTYes???USGS620011.56 Unspecified NONE
4681999-03-04 14:11PSTYes???USGS601011.57 Unspecified NONE
4671999-03-04 14:08PSTYes???USGS598011.58 Unspecified NONE
4661999-03-04 14:05PSTYes???USGS646011.59 Unspecified NONE
4651999-03-04 12:08PSTYes???USGS607012.25 Unspecified NONE
4641999-03-04 12:05PSTYes???USGS619012.28 Unspecified NONE
4631999-03-04 11:06PSTYes???USGS601012.66 Unspecified NONE
4621999-03-04 11:03PSTYes???USGS633012.67 Unspecified NONE
4611998-06-04 10:52PSTYes???USGS803012.73 Unspecified NONE
4601998-06-04 10:49PSTYes???USGS844012.71 Unspecified NONE
4591998-06-04 10:45PSTYes???USGS809012.69 Unspecified NONE
4581998-06-04 10:41PSTYes???USGS828012.67 Unspecified NONE
4571998-06-04 10:37PSTYes???USGS831012.66 Unspecified NONE
4561998-06-04 09:46PSTYes???USGS837012.58 Unspecified NONE
4551998-06-04 09:42PSTYes???USGS879012.59 Unspecified NONE
4541998-06-04 09:25PSTYes???USGS829012.62 Unspecified NONE
4531998-06-04 08:46PSTYes???USGS851012.72 Unspecified NONE
4521998-06-04 08:43PSTYes???USGS887012.73 Unspecified NONE
4511998-06-04 08:39PSTYes???USGS943012.74 Unspecified NONE
4501998-06-04 08:35PSTYes???USGS884012.76 Unspecified NONE
4491998-06-04 08:31PSTYes???USGS832012.77 Unspecified NONE
4481998-06-04 08:28PSTYes???USGS907012.79 Unspecified NONE
4471998-06-04 08:24PSTYes???USGS880012.80 Unspecified NONE
4461998-06-04 08:19PSTYes???USGS956012.82 Unspecified NONE
4451998-05-07 12:37PSTYes???USGS683012.86 Unspecified NONE
4441998-05-07 12:34PSTYes???USGS693012.81 Unspecified NONE
4431998-05-07 12:30PSTYes???USGS642012.77 Unspecified NONE
4421998-05-07 12:02PSTYes???USGS748012.44 Unspecified NONE
4411998-05-07 11:59PSTYes???USGS708012.41 Unspecified NONE
4401998-05-07 11:33PSTYes???USGS758012.24 Unspecified NONE
4391998-05-07 11:29PSTYes???USGS788012.22 Unspecified NONE
4381998-05-07 10:23PSTYes???USGS861012.26 Unspecified NONE
4371998-05-07 10:19PSTYes???USGS809012.27 Unspecified NONE
4361998-05-07 10:16PSTYes???USGS836012.29 Unspecified NONE
4351998-05-07 10:12PSTYes???USGS813012.30 Unspecified NONE
4341998-05-07 10:08PSTYes???USGS810012.31 Unspecified NONE
4331998-05-07 10:04PSTYes???USGS806012.32 Unspecified NONE
4321998-05-07 10:00PSTYes???USGS848012.34 Unspecified NONE
4311998-05-07 09:56PSTYes???USGS799012.35 Unspecified NONE
4301998-05-07 09:53PSTYes???USGS821012.37 Unspecified NONE
4291998-05-07 09:24PSTYes???USGS898012.51 Unspecified NONE
4281998-05-07 09:19PSTYes???USGS886012.53 Unspecified NONE
4271998-05-07 09:15PSTYes???USGS825012.55 Unspecified NONE
4261998-05-07 09:11PSTYes???USGS868012.57 Unspecified NONE
4251998-05-01 12:20PSTYes???USGS903013.86 Unspecified NONE
4241998-05-01 12:15PSTYes???USGS929013.89 Unspecified NONE
4231998-05-01 12:09PSTYes???USGS939013.91 Unspecified NONE
4221998-05-01 12:04PSTYes???USGS934013.94 Unspecified NONE
4211998-05-01 11:33PSTYes???USGS911014.13 Unspecified NONE
4201998-05-01 11:27PSTYes???USGS927014.17 Unspecified NONE
4191998-05-01 11:21PSTYes???USGS887014.20 Unspecified NONE
4181998-05-01 11:15PSTYes???USGS906014.26 Unspecified NONE
4171998-05-01 10:45PSTYes???USGS938014.47 Unspecified NONE
4161998-05-01 10:39PSTYes???USGS933014.51 Unspecified NONE
4151998-05-01 10:12PSTYes???USGS864014.73 Unspecified NONE
4141998-05-01 10:06PSTYes???USGS881014.77 Unspecified NONE
4131998-05-01 09:34PSTYes???USGS831014.94 Unspecified NONE
4121998-05-01 09:27PSTYes???USGS800014.96 Unspecified NONE
4111998-05-01 09:21PSTYes???USGS769014.97 Unspecified NONE
4101998-05-01 09:18PSTYes???USGS748014.97 Unspecified NONE
4091998-05-01 09:14PSTYes???USGS745014.98 Unspecified NONE
4081997-10-21 14:10PSTYes???USGS338011.90 Unspecified NONE
4071997-10-21 14:07PSTYes???USGS362011.92 Unspecified NONE
4061997-10-21 14:04PSTYes???USGS360011.94 Unspecified NONE
4051997-10-21 14:01PSTYes???USGS348011.96 Unspecified NONE
4041997-10-21 13:58PSTYes???USGS387011.98 Unspecified NONE
4031997-10-21 13:55PSTYes???USGS377012.00 Unspecified NONE
4021997-10-21 13:53PSTYes???USGS366012.02 Unspecified NONE
4011997-10-21 13:51PSTYes???USGS373012.04 Unspecified NONE
4001997-10-21 13:48PSTYes???USGS372012.06 Unspecified NONE
3991997-10-21 13:45PSTYes???USGS374012.08 Unspecified NONE
3981997-10-21 13:42PSTYes???USGS347012.11 Unspecified NONE
3971997-10-21 13:39PSTYes???USGS385012.13 Unspecified NONE
3961997-10-21 13:36PSTYes???USGS364012.16 Unspecified NONE
3951997-10-21 13:32PSTYes???USGS378012.20 Unspecified NONE
3941997-10-21 13:28PSTYes???USGS359012.24 Unspecified NONE
3931997-10-21 13:26PSTYes???USGS365012.26 Unspecified NONE
3921997-10-21 13:23PSTYes???USGS378012.29 Unspecified NONE
3911997-10-21 13:20PSTYes???USGS370012.32 Unspecified NONE
3901997-10-21 13:17PSTYes???USGS349012.35 Unspecified NONE
3891997-10-21 13:14PSTYes???USGS368012.38 Unspecified NONE
3881997-10-21 13:11PSTYes???USGS345012.42 Unspecified NONE
3871997-10-21 13:05PSTYes???USGS349012.48 Unspecified NONE
3861997-10-21 13:02PSTYes???USGS342012.51 Unspecified NONE
3851997-10-21 12:59PSTYes???USGS334012.54 Unspecified NONE
3841997-10-21 12:56PSTYes???USGS337012.58 Unspecified NONE
3831997-10-21 12:53PSTYes???USGS301012.61 Unspecified NONE
3821997-10-21 12:50PSTYes???USGS323012.65 Unspecified NONE
3811997-10-21 12:45PSTYes???USGS301012.70 Unspecified NONE
3801997-10-21 12:43PSTYes???USGS292012.72 Unspecified NONE
3791997-10-21 12:39PSTYes???USGS261012.76 Unspecified NONE
3781997-10-21 12:36PSTYes???USGS261012.80 Unspecified NONE
3771997-10-21 12:33PSTYes???USGS243012.83 Unspecified NONE
3761997-10-21 12:29PSTYes???USGS234012.87 Unspecified NONE
3751997-10-21 12:25PSTYes???USGS215012.90 Unspecified NONE
3741997-10-21 12:22PSTYes???USGS205012.94 Unspecified NONE
3731997-10-21 12:18PSTYes???USGS186012.98 Unspecified NONE
3721997-10-21 12:14PSTYes???USGS170013.02 Unspecified NONE
3711997-10-21 12:10PSTYes???USGS131013.06 Unspecified NONE
3701997-10-21 12:06PSTYes???USGS127013.09 Unspecified NONE
3691997-10-21 12:02PSTYes???USGS97813.12 Unspecified NONE
3681997-10-21 11:59PSTYes???USGS84013.15 Unspecified NONE
3671997-10-21 11:55PSTYes???USGS53613.18 Unspecified NONE
3661997-10-21 11:51PSTYes???USGS44513.21 Unspecified NONE
3651997-10-21 11:47PSTYes???USGS17313.23 Unspecified NONE
3641997-10-21 11:44PSTYes???USGS73.013.25 Unspecified NONE
3631997-10-21 11:40PSTYes???USGS-10713.27 Unspecified NONE
3621997-10-21 11:36PSTYes???USGS-28913.28 Unspecified NONE
3611997-10-21 11:32PSTYes???USGS-42113.29 Unspecified NONE
3601997-10-21 11:28PSTYes???USGS-53913.30 Unspecified NONE
3591997-10-21 11:25PSTYes???USGS-62213.31 Unspecified NONE
3581997-10-21 11:21PSTYes???USGS-81613.32 Unspecified NONE
3571997-10-21 11:16PSTYes???USGS-100013.33 Unspecified NONE
3561997-10-21 11:12PSTYes???USGS-112013.33 Unspecified NONE
3551997-10-21 11:03PSTYes???USGS-132013.33 Unspecified NONE
3541997-10-21 10:59PSTYes???USGS-142013.32 Unspecified NONE
3531997-10-21 10:22PSTYes???USGS-184013.22 Unspecified NONE
3521997-10-21 10:17PSTYes???USGS-186013.20 Unspecified NONE
3511997-10-21 10:13PSTYes???USGS-180013.18 Unspecified NONE
3501997-10-21 10:08PSTYes???USGS-197013.15 Unspecified NONE
3491997-10-21 09:40PSTYes???USGS-183013.00 Unspecified NONE
3481997-10-21 09:36PSTYes???USGS-179012.97 Unspecified NONE
3471997-10-21 09:31PSTYes???USGS-182012.94 Unspecified NONE
3461997-10-21 09:27PSTYes???USGS-180012.91 Unspecified NONE
3451997-10-21 09:22PSTYes???USGS-182012.88 Unspecified NONE
3441997-10-20 14:23PSTYes???USGS277011.48 Unspecified NONE
3431997-10-20 14:19PSTYes???USGS294011.49 Unspecified NONE
3421997-10-20 13:19PSTYes???USGS347011.72 Unspecified NONE
3411997-10-20 13:16PSTYes???USGS345011.74 Unspecified NONE
3401997-10-20 12:21PSTYes???USGS379012.18 Unspecified NONE
3391997-10-20 12:18PSTYes???USGS366012.21 Unspecified NONE
3381997-10-20 12:14PSTYes???USGS380012.25 Unspecified NONE
3371997-10-20 12:11PSTYes???USGS363012.29 Unspecified NONE
3361997-10-20 12:07PSTYes???USGS366012.33 Unspecified NONE
3351997-10-20 12:04PSTYes???USGS363012.37 Unspecified NONE
3341997-10-20 12:01PSTYes???USGS360012.40 Unspecified NONE
3331997-10-20 11:57PSTYes???USGS344012.45 Unspecified NONE
3321997-10-20 11:54PSTYes???USGS330012.49 Unspecified NONE
3311997-10-20 11:51PSTYes???USGS320012.53 Unspecified NONE
3301997-10-20 11:49PSTYes???USGS326012.57 Unspecified NONE
3291997-10-20 11:46PSTYes???USGS314012.60 Unspecified NONE
3281997-10-20 11:43PSTYes???USGS309012.64 Unspecified NONE
3271997-10-20 11:40PSTYes???USGS286012.67 Unspecified NONE
3261997-10-20 11:37PSTYes???USGS282012.71 Unspecified NONE
3251997-10-20 11:34PSTYes???USGS260012.74 Unspecified NONE
3241997-10-20 11:32PSTYes???USGS256012.78 Unspecified NONE
3231997-10-20 11:29PSTYes???USGS240012.81 Unspecified NONE
3221997-10-20 11:26PSTYes???USGS231012.84 Unspecified NONE
3211997-10-20 11:23PSTYes???USGS221012.88 Unspecified NONE
3201997-10-20 11:19PSTYes???USGS200012.93 Unspecified NONE
3191997-10-20 11:16PSTYes???USGS197012.96 Unspecified NONE
3181997-10-20 11:14PSTYes???USGS172013.00 Unspecified NONE
3171997-10-20 11:11PSTYes???USGS164013.03 Unspecified NONE
3161997-10-20 11:08PSTYes???USGS144013.06 Unspecified NONE
3151997-10-20 11:06PSTYes???USGS135013.08 Unspecified NONE
3141997-10-20 11:04PSTYes???USGS106013.11 Unspecified NONE
3131997-10-20 11:01PSTYes???USGS95213.14 Unspecified NONE
3121997-10-20 10:58PSTYes???USGS80413.17 Unspecified NONE
3111997-10-20 10:55PSTYes???USGS62113.20 Unspecified NONE
3101997-10-20 10:52PSTYes???USGS50113.22 Unspecified NONE
3091997-10-20 10:49PSTYes???USGS32913.24 Unspecified NONE
3081997-10-20 10:45PSTYes???USGS20.013.27 Unspecified NONE
3071997-10-20 10:43PSTYes???USGS-14513.29 Unspecified NONE
3061997-10-20 10:40PSTYes???USGS-17313.31 Unspecified NONE
3051997-10-20 10:37PSTYes???USGS-24913.32 Unspecified NONE
3041997-10-20 10:34PSTYes???USGS-35413.34 Unspecified NONE
3031997-10-20 10:31PSTYes???USGS-49613.35 Unspecified NONE
3021997-10-20 10:28PSTYes???USGS-70213.36 Unspecified NONE
3011997-10-20 10:25PSTYes???USGS-86213.37 Unspecified NONE
3001997-10-20 10:23PSTYes???USGS-83013.37 Unspecified NONE
2991997-10-20 10:20PSTYes???USGS-96713.38 Unspecified NONE
2981997-10-20 10:14PSTYes???USGS-112013.40 Unspecified NONE
2971997-10-20 10:12PSTYes???USGS-127013.40 Unspecified NONE
2961997-10-20 10:09PSTYes???USGS-127013.40 Unspecified NONE
2951997-10-20 10:07PSTYes???USGS-138013.40 Unspecified NONE
2941997-10-20 10:04PSTYes???USGS-132013.40 Unspecified NONE
2931997-09-12 13:07PSTYes???USGS10512.47 Unspecified NONE
2921997-09-12 13:04PSTYes???USGS83.012.45 Unspecified NONE
2911997-09-12 13:01PSTYes???USGS91.012.43 Unspecified NONE
2901997-09-12 12:59PSTYes???USGS20412.41 Unspecified NONE
2891997-09-12 12:56PSTYes???USGS12312.39 Unspecified NONE
2881997-09-12 12:53PSTYes???USGS9.0012.37 Unspecified NONE
2871997-09-12 12:50PSTYes???USGS-32.012.35 Unspecified NONE
2861997-09-12 12:48PSTYes???USGS47.012.34 Unspecified NONE
2851997-09-12 12:45PSTYes???USGS-9.0012.33 Unspecified NONE
2841997-09-12 12:42PSTYes???USGS65.012.31 Unspecified NONE
2831997-09-12 12:39PSTYes???USGS-76.012.29 Unspecified NONE
2821997-09-12 12:36PSTYes???USGS-75.012.28 Unspecified NONE
2811997-09-12 12:33PSTYes???USGS-14512.26 Unspecified NONE
2801997-09-12 12:30PSTYes???USGS-23612.23 Unspecified NONE
2791997-09-12 12:27PSTYes???USGS-31212.22 Unspecified NONE
2781997-09-12 12:24PSTYes???USGS-42512.20 Unspecified NONE
2771997-09-12 12:21PSTYes???USGS-42712.18 Unspecified NONE
2761997-09-12 12:13PSTYes???USGS-51612.12 Unspecified NONE
2751997-09-12 12:10PSTYes???USGS-60412.10 Unspecified NONE
2741997-09-12 12:07PSTYes???USGS-69112.08 Unspecified NONE
2731997-09-12 12:04PSTYes???USGS-68112.05 Unspecified NONE
2721997-09-12 12:01PSTYes???USGS-73912.03 Unspecified NONE
2711997-09-12 11:58PSTYes???USGS-87012.01 Unspecified NONE
2701997-09-12 11:55PSTYes???USGS-98011.98 Unspecified NONE
2691997-09-12 11:52PSTYes???USGS-91511.96 Unspecified NONE
2681997-09-12 11:49PSTYes???USGS-105011.94 Unspecified NONE
2671997-09-12 11:47PSTYes???USGS-110011.91 Unspecified NONE
2661997-09-12 11:44PSTYes???USGS-116011.89 Unspecified NONE
2651997-09-12 11:41PSTYes???USGS-115011.87 Unspecified NONE
2641997-09-12 11:38PSTYes???USGS-113011.84 Unspecified NONE
2631997-09-12 11:35PSTYes???USGS-125011.80 Unspecified NONE
2621997-09-12 11:32PSTYes???USGS-125011.77 Unspecified NONE
2611997-09-12 11:29PSTYes???USGS-124011.74 Unspecified NONE
2601997-09-12 11:27PSTYes???USGS-121011.71 Unspecified NONE
2591997-09-12 11:24PSTYes???USGS-117011.67 Unspecified NONE
2581997-09-12 11:21PSTYes???USGS-118011.63 Unspecified NONE
2571997-09-12 11:18PSTYes???USGS-115011.59 Unspecified NONE
2561997-09-12 11:15PSTYes???USGS-113011.55 Unspecified NONE
2551997-09-12 11:12PSTYes???USGS-102011.51 Unspecified NONE
2541997-09-12 11:10PSTYes???USGS-116011.47 Unspecified NONE
2531997-09-12 11:07PSTYes???USGS-106011.43 Unspecified NONE
2521997-09-12 11:04PSTYes???USGS-93311.38 Unspecified NONE
2511997-09-12 11:01PSTYes???USGS-81111.34 Unspecified NONE
2501997-09-12 10:58PSTYes???USGS-66211.28 Unspecified NONE
2491997-09-12 10:55PSTYes???USGS-69311.23 Unspecified NONE
2481997-09-12 10:52PSTYes???USGS-52311.18 Unspecified NONE
2471997-09-12 10:49PSTYes???USGS-39311.12 Unspecified NONE
2461997-09-12 10:46PSTYes???USGS-18811.07 Unspecified NONE
2451997-09-12 10:43PSTYes???USGS-46.011.01 Unspecified NONE
2441997-09-12 10:41PSTYes???USGS75.010.96 Unspecified NONE
2431997-09-12 10:38PSTYes???USGS13110.90 Unspecified NONE
2421997-09-12 10:29PSTYes???USGS77610.75 Unspecified NONE
2411997-09-12 10:27PSTYes???USGS83810.71 Unspecified NONE
2401997-09-12 10:24PSTYes???USGS87910.66 Unspecified NONE
2391997-09-12 10:22PSTYes???USGS111010.62 Unspecified NONE
2381997-09-12 10:11PSTYes???USGS168010.44 Unspecified NONE
2371997-09-12 10:08PSTYes???USGS190010.41 Unspecified NONE
2361997-09-12 10:05PSTYes???USGS193010.37 Unspecified NONE
2351997-09-12 10:03PSTYes???USGS216010.34 Unspecified NONE
2341997-09-12 09:37PSTYes???USGS282010.16 Unspecified NONE
2331997-09-12 09:34PSTYes???USGS299010.15 Unspecified NONE
2321997-09-12 09:03PSTYes???USGS326010.16 Unspecified NONE
2311997-09-12 09:00PSTYes???USGS341010.17 Unspecified NONE
2301997-09-12 08:55PSTYes???USGS344010.19 Unspecified NONE
2291997-09-12 08:52PSTYes???USGS341010.20 Unspecified NONE
2281997-09-12 08:47PSTYes???USGS345010.22 Unspecified NONE
2271997-09-12 08:43PSTYes???USGS348010.24 Unspecified NONE
2261997-09-11 14:35PSTYes???USGS-66.012.85 Unspecified NONE
2251997-09-11 14:32PSTYes???USGS-48.012.87 Unspecified NONE
2241997-09-11 14:29PSTYes???USGS-73.012.88 Unspecified NONE
2231997-09-11 14:26PSTYes???USGS-64.012.88 Unspecified NONE
2221997-09-11 14:24PSTYes???USGS-10812.88 Unspecified NONE
2211997-09-11 13:58PSTYes???USGS-42512.90 Unspecified NONE
2201997-09-11 13:55PSTYes???USGS-34312.89 Unspecified NONE
2191997-09-11 13:53PSTYes???USGS-37212.88 Unspecified NONE
2181997-09-11 13:50PSTYes???USGS-37712.87 Unspecified NONE
2171997-09-11 13:48PSTYes???USGS-52612.87 Unspecified NONE
2161997-09-11 13:45PSTYes???USGS-44912.87 Unspecified NONE
2151997-09-11 13:43PSTYes???USGS-46712.87 Unspecified NONE
2141997-09-11 13:27PSTYes???USGS-42712.81 Unspecified NONE
2131997-09-11 13:24PSTYes???USGS-39812.81 Unspecified NONE
2121997-09-11 13:22PSTYes???USGS-42312.79 Unspecified NONE
2111997-09-11 13:19PSTYes???USGS-41012.78 Unspecified NONE
2101997-09-11 13:17PSTYes???USGS-33912.77 Unspecified NONE
2091997-09-11 13:14PSTYes???USGS-50212.77 Unspecified NONE
2081997-09-11 13:12PSTYes???USGS-31912.76 Unspecified NONE
2071997-09-11 13:09PSTYes???USGS-36812.76 Unspecified NONE
2061997-09-11 12:43PSTYes???USGS-14912.63 Unspecified NONE
2051997-09-11 12:41PSTYes???USGS-16512.62 Unspecified NONE
2041997-09-11 12:39PSTYes???USGS-33.012.61 Unspecified NONE
2031997-09-11 12:06PSTYes???USGS20412.42 Unspecified NONE
2021997-09-11 12:03PSTYes???USGS28512.41 Unspecified NONE
2011997-09-11 11:51PSTYes???USGS21112.36 Unspecified NONE
2001997-09-11 11:49PSTYes???USGS24112.34 Unspecified NONE
1991997-09-11 11:46PSTYes???USGS15312.32 Unspecified NONE
1981997-09-11 11:44PSTYes???USGS16212.30 Unspecified NONE
1971997-09-11 11:41PSTYes???USGS10712.29 Unspecified NONE
1961997-09-11 11:38PSTYes???USGS42.012.28 Unspecified NONE
1951997-09-11 11:27PSTYes???USGS-85.012.21 Unspecified NONE
1941997-09-11 11:25PSTYes???USGS-66.012.20 Unspecified NONE
1931997-09-11 11:23PSTYes???USGS-13712.18 Unspecified NONE
1921997-09-11 11:20PSTYes???USGS-14212.16 Unspecified NONE
1911997-09-11 11:17PSTYes???USGS-24512.14 Unspecified NONE
1901997-09-11 11:08PSTYes???USGS-23412.09 Unspecified NONE
1891997-09-11 11:05PSTYes???USGS-41112.07 Unspecified NONE
1881997-09-11 11:03PSTYes???USGS-41312.05 Unspecified NONE
1871997-09-11 11:00PSTYes???USGS-46812.03 Unspecified NONE
1861997-09-11 10:57PSTYes???USGS-56812.01 Unspecified NONE
1851997-09-11 10:55PSTYes???USGS-56711.99 Unspecified NONE
1841997-09-11 10:46PSTYes???USGS-69611.92 Unspecified NONE
1831997-09-11 10:43PSTYes???USGS-68011.90 Unspecified NONE
1821997-09-11 10:38PSTYes???USGS-70411.85 Unspecified NONE
1811997-09-11 10:38PSTYes???USGS-65011.85 Unspecified NONE
1801997-09-11 10:30PSTYes???USGS-72011.76 Unspecified NONE
1791997-09-11 10:27PSTYes???USGS-79711.73 Unspecified NONE
1781997-09-11 10:25PSTYes???USGS-77111.70 Unspecified NONE
1771997-09-11 10:14PSTYes???USGS-66311.57 Unspecified NONE
1761997-09-11 10:11PSTYes???USGS-60711.53 Unspecified NONE
1751997-09-11 10:09PSTYes???USGS-58511.50 Unspecified NONE
1741997-09-11 10:06PSTYes???USGS-61211.47 Unspecified NONE
1731997-09-11 10:04PSTYes???USGS-66011.43 Unspecified NONE
1721997-09-11 09:40PSTYes???USGS17911.07 Unspecified NONE
1711997-09-11 09:38PSTYes???USGS24811.03 Unspecified NONE
1701997-09-11 09:35PSTYes???USGS47210.99 Unspecified NONE
1691997-09-11 09:33PSTYes???USGS56710.94 Unspecified NONE
1681997-09-11 09:30PSTYes???USGS81010.90 Unspecified NONE
1671997-09-11 09:27PSTYes???USGS84710.86 Unspecified NONE
1661997-09-11 09:25PSTYes???USGS98810.82 Unspecified NONE
1651997-09-11 09:23PSTYes???USGS104010.79 Unspecified NONE
1641997-09-11 09:20PSTYes???USGS128010.75 Unspecified NONE
1631997-09-11 08:40PSTYes???USGS261010.35 Unspecified NONE
1621997-09-11 08:37PSTYes???USGS279010.34 Unspecified NONE
1611997-09-11 08:35PSTYes???USGS278010.33 Unspecified NONE
1601997-09-11 08:32PSTYes???USGS287010.32 Unspecified NONE
1591997-09-11 08:29PSTYes???USGS301010.32 Unspecified NONE
1581997-09-11 08:27PSTYes???USGS290010.31 Unspecified NONE
1571997-09-03 15:05PSTYes???USGS-103011.32 Unspecified NONE
1561997-09-03 15:02PSTYes???USGS-84011.27 Unspecified NONE
1551997-09-03 15:00PSTYes???USGS-78911.22 Unspecified NONE
1541997-09-03 14:58PSTYes???USGS-61711.18 Unspecified NONE
1531997-09-03 14:56PSTYes???USGS-54911.14 Unspecified NONE
1521997-09-03 14:53PSTYes???USGS-37311.09 Unspecified NONE
1511997-09-03 14:51PSTYes???USGS-22711.04 Unspecified NONE
1501997-09-03 14:49PSTYes???USGS-2.0010.99 Unspecified NONE
1491997-09-03 14:46PSTYes???USGS14510.95 Unspecified NONE
1481997-09-03 14:44PSTYes???USGS21010.90 Unspecified NONE
1471997-09-03 14:42PSTYes???USGS32810.87 Unspecified NONE
1461997-09-03 14:39PSTYes???USGS60410.81 Unspecified NONE
1451997-09-03 14:37PSTYes???USGS70910.77 Unspecified NONE
1441997-09-03 14:35PSTYes???USGS83110.72 Unspecified NONE
1431997-09-03 14:28PSTYes???USGS118010.61 Unspecified NONE
1421997-09-03 14:26PSTYes???USGS142010.57 Unspecified NONE
1411997-09-03 14:24PSTYes???USGS147010.54 Unspecified NONE
1401997-09-03 14:22PSTYes???USGS158010.50 Unspecified NONE
1391997-09-03 14:19PSTYes???USGS178010.47 Unspecified NONE
1381997-09-03 13:51PSTYes???USGS283010.24 Unspecified NONE
1371997-09-03 13:49PSTYes???USGS266010.23 Unspecified NONE
1361997-09-03 13:47PSTYes???USGS286010.22 Unspecified NONE
1351997-09-03 13:44PSTYes???USGS296010.22 Unspecified NONE
1341997-09-03 13:42PSTYes???USGS302010.22 Unspecified NONE
1331997-09-03 13:19PSTYes???USGS314010.24 Unspecified NONE
1321997-09-03 13:17PSTYes???USGS342010.25 Unspecified NONE
1311997-09-03 13:15PSTYes???USGS317010.26 Unspecified NONE
1301997-09-03 13:13PSTYes???USGS350010.27 Unspecified NONE
1291997-09-03 12:29PSTYes???USGS359010.52 Unspecified NONE
1281997-09-03 12:27PSTYes???USGS371010.54 Unspecified NONE
1271997-09-03 11:43PSTYes???USGS362010.87 Unspecified NONE
1261997-09-03 11:41PSTYes???USGS364010.89 Unspecified NONE
1251997-09-03 10:52PSTYes???USGS340011.29 Unspecified NONE
1241997-09-03 10:49PSTYes???USGS342011.31 Unspecified NONE
1231997-09-03 10:22PSTYes???USGS326011.52 Unspecified NONE
1221997-09-03 10:20PSTYes???USGS336011.53 Unspecified NONE
1211997-09-03 10:18PSTYes???USGS321011.54 Unspecified NONE
1201997-09-03 10:16PSTYes???USGS334011.56 Unspecified NONE
1191997-09-03 10:13PSTYes???USGS316011.57 Unspecified NONE
1181997-09-03 10:11PSTYes???USGS338011.59 Unspecified NONE
1171997-09-03 10:10PSTYes???USGS310011.60 Unspecified NONE
1161997-09-03 10:08PSTYes???USGS324011.61 Unspecified NONE
1151997-09-03 10:06PSTYes???USGS330011.63 Unspecified NONE
1141997-09-03 10:04PSTYes???USGS314011.64 Unspecified NONE
1131997-09-03 10:02PSTYes???USGS305011.65 Unspecified NONE
1121997-09-03 10:00PSTYes???USGS316011.66 Unspecified NONE
1111997-09-03 09:27PSTYes???USGS343011.86 Unspecified NONE
1101997-09-03 09:25PSTYes???USGS364011.88 Unspecified NONE
1091997-09-03 08:53PSTYes???USGS362012.12 Unspecified NONE
1081997-09-03 08:51PSTYes???USGS373012.14 Unspecified NONE
1071997-09-03 08:49PSTYes???USGS359012.16 Unspecified NONE
1061997-09-03 08:47PSTYes???USGS374012.18 Unspecified NONE
1051997-09-03 08:45PSTYes???USGS355012.20 Unspecified NONE
1041997-09-03 08:43PSTYes???USGS372012.22 Unspecified NONE
1031997-09-03 08:40PSTYes???USGS356012.25 Unspecified NONE
1021997-09-03 08:38PSTYes???USGS354012.28 Unspecified NONE
1011997-09-03 08:35PSTYes???USGS359012.31 Unspecified NONE
1001997-09-03 08:33PSTYes???USGS347012.33 Unspecified NONE
991997-09-03 08:30PSTYes???USGS316012.36 Unspecified NONE
981997-09-03 08:28PSTYes???USGS336012.38 Unspecified NONE
971997-09-03 08:25PSTYes???USGS334012.41 Unspecified NONE
961997-09-03 08:23PSTYes???USGS328012.44 Unspecified NONE
951997-07-18 13:32PSTYes???USGS-30511.06 Unspecified NONE
941997-07-18 13:30PSTYes???USGS-13411.01 Unspecified NONE
931997-07-18 13:27PSTYes???USGS-56.010.95 Unspecified NONE
921997-07-18 13:24PSTYes???USGS18710.90 Unspecified NONE
911997-07-18 13:22PSTYes???USGS35510.85 Unspecified NONE
901997-07-18 13:19PSTYes???USGS47310.79 Unspecified NONE
891997-07-18 13:16PSTYes???USGS68210.73 Unspecified NONE
881997-07-18 13:14PSTYes???USGS86210.69 Unspecified NONE
871997-07-18 13:11PSTYes???USGS99110.64 Unspecified NONE
861997-07-18 13:08PSTYes???USGS115010.59 Unspecified NONE
851997-07-18 13:06PSTYes???USGS126010.54 Unspecified NONE
841997-07-18 13:03PSTYes???USGS143010.50 Unspecified NONE
831997-07-18 13:00PSTYes???USGS150010.46 Unspecified NONE
821997-07-18 12:57PSTYes???USGS180010.42 Unspecified NONE
811997-07-18 12:55PSTYes???USGS183010.38 Unspecified NONE
801997-07-18 12:52PSTYes???USGS201010.35 Unspecified NONE
791997-07-18 12:50PSTYes???USGS197010.32 Unspecified NONE
781997-07-18 12:47PSTYes???USGS224010.29 Unspecified NONE
771997-07-18 11:57PSTYes???USGS336010.17 Unspecified NONE
761997-07-18 11:54PSTYes???USGS350010.18 Unspecified NONE
751997-07-18 11:51PSTYes???USGS338010.20 Unspecified NONE
741997-07-18 11:48PSTYes???USGS353010.21 Unspecified NONE
731997-07-18 11:45PSTYes???USGS341010.23 Unspecified NONE
721997-07-18 11:42PSTYes???USGS339010.25 Unspecified NONE
711997-07-18 10:07PSTYes???USGS384010.94 Unspecified NONE
701997-07-18 10:04PSTYes???USGS360010.97 Unspecified NONE
691997-07-18 10:01PSTYes???USGS369011.00 Unspecified NONE
681997-07-18 08:38PSTYes???USGS374011.76 Unspecified NONE
671997-07-18 08:35PSTYes???USGS352011.78 Unspecified NONE
661997-07-18 08:32PSTYes???USGS361011.80 Unspecified NONE
651997-07-18 08:30PSTYes???USGS348011.82 Unspecified NONE
641997-07-18 08:23PSTYes???USGS356011.89 Unspecified NONE
631997-07-18 08:19PSTYes???USGS344011.92 Unspecified NONE
621997-07-18 08:16PSTYes???USGS372011.95 Unspecified NONE
611997-07-18 08:13PSTYes???USGS366011.98 Unspecified NONE
601997-07-18 08:12PSTYes???USGS347011.99 Unspecified NONE
591997-07-18 08:10PSTYes???USGS366012.01 Unspecified NONE
581997-07-18 08:08PSTYes???USGS346012.03 Unspecified NONE
571997-07-18 08:05PSTYes???USGS361012.06 Unspecified NONE
561997-07-18 07:59PSTYes???USGS355012.11 Unspecified NONE
551997-07-16 14:14PSTYes???USGS-42812.60 Unspecified NONE
541997-07-16 14:12PSTYes???USGS-39212.59 Unspecified NONE
531997-07-16 14:07PSTYes???USGS-44512.57 Unspecified NONE
521997-07-16 14:04PSTYes???USGS-42912.56 Unspecified NONE
511997-07-16 14:02PSTYes???USGS-45612.55 Unspecified NONE
501997-07-16 13:59PSTYes???USGS-52312.53 Unspecified NONE
491997-07-16 13:56PSTYes???USGS-60412.52 Unspecified NONE
481997-07-16 13:54PSTYes???USGS-57512.50 Unspecified NONE
471997-07-16 13:51PSTYes???USGS-62512.49 Unspecified NONE
461997-07-16 13:48PSTYes???USGS-55612.47 Unspecified NONE
451997-07-16 13:46PSTYes???USGS-73312.45 Unspecified NONE
441997-07-16 13:43PSTYes???USGS-74112.44 Unspecified NONE
431997-07-16 13:40PSTYes???USGS-78112.42 Unspecified NONE
421997-07-16 13:37PSTYes???USGS-84212.41 Unspecified NONE
411997-07-16 13:29PSTYes???USGS-108012.36 Unspecified NONE
401997-07-16 13:26PSTYes???USGS-115012.35 Unspecified NONE
391997-07-16 13:23PSTYes???USGS-108012.33 Unspecified NONE
381997-07-16 13:21PSTYes???USGS-132012.31 Unspecified NONE
371997-07-16 13:18PSTYes???USGS-127012.30 Unspecified NONE
361997-07-16 13:16PSTYes???USGS-136012.28 Unspecified NONE
351997-07-16 13:12PSTYes???USGS-145012.25 Unspecified NONE
341997-07-16 13:09PSTYes???USGS-142012.23 Unspecified NONE
331997-07-16 13:06PSTYes???USGS-152012.21 Unspecified NONE
321997-07-16 13:03PSTYes???USGS-154012.19 Unspecified NONE
311997-07-16 13:00PSTYes???USGS-170012.17 Unspecified NONE
301997-07-16 12:58PSTYes???USGS-172012.15 Unspecified NONE
291997-07-16 12:55PSTYes???USGS-170012.13 Unspecified NONE
281997-07-16 12:52PSTYes???USGS-177012.09 Unspecified NONE
271997-07-16 11:44PSTYes???USGS77.011.07 Unspecified NONE
261997-07-16 11:42PSTYes???USGS15011.02 Unspecified NONE
251997-07-16 11:39PSTYes???USGS26610.98 Unspecified NONE
241997-07-16 11:37PSTYes???USGS52810.93 Unspecified NONE
231997-07-16 11:34PSTYes???USGS55710.88 Unspecified NONE
221997-07-16 11:31PSTYes???USGS78010.83 Unspecified NONE
211997-07-16 11:27PSTYes???USGS111010.75 Unspecified NONE
201997-07-16 11:24PSTYes???USGS120010.70 Unspecified NONE
191997-07-16 11:21PSTYes???USGS146010.67 Unspecified NONE
181997-07-16 11:18PSTYes???USGS152010.62 Unspecified NONE
171997-07-16 11:15PSTYes???USGS174010.58 Unspecified NONE
161997-07-16 11:13PSTYes???USGS185010.56 Unspecified NONE
151997-07-16 11:11PSTYes???USGS198010.54 Unspecified NONE
141997-07-16 11:00PSTYes???USGS226010.44 Unspecified NONE
131997-07-16 10:57PSTYes???USGS251010.43 Unspecified NONE
121997-07-16 10:54PSTYes???USGS250010.41 Unspecified NONE
111997-07-16 10:51PSTYes???USGS254010.39 Unspecified NONE
101997-07-16 10:48PSTYes???USGS264010.37 Unspecified NONE
91997-07-16 10:45PSTYes???USGS265010.36 Unspecified NONE
81997-07-16 10:42PSTYes???USGS275010.35 Unspecified NONE
71997-07-16 10:40PSTYes???USGS277010.35 Unspecified NONE
61997-07-16 10:37PSTYes???USGS275010.35 Unspecified NONE
51997-07-16 10:33PSTYes???USGS289010.35 Unspecified NONE
41997-07-16 10:31PSTYes???USGS301010.35 Unspecified NONE
31997-07-16 10:28PSTYes???USGS314010.35 Unspecified NONE
21997-07-16 10:24PSTYes???USGS302010.35 Unspecified NONE
11997-07-16 10:21PSTYes???USGS310010.36 Unspecified NONE